GW0748 Weather Reports


time (UTC)temp
F
wind
direction
speed
knots
gust
knots
rain 1hr
in
rain 24hr
in
rain mn
in
humidity
%
barometer
mb
20260508033804 60 338 2.6 6.1 0.00 0.00 0.00 71 1011.3
20260508033704 60 339 2.6 6.1 0.00 0.00 0.00 71 1011.2
20260508033604 60 337 2.6 6.1 0.00 0.00 0.00 71 1011.3
20260508033504 60 339 2.6 6.1 0.00 0.00 0.00 71 1011.4
20260508033404 60 337 2.6 6.1 0.00 0.00 0.00 71 1011.3
20260508033304 60 337 2.6 6.1 0.00 0.00 0.00 71 1011.3
20260508033204 60 337 3.5 6.1 0.00 0.00 0.00 71 1011.3
20260508033104 60 336 3.5 7.0 0.00 0.00 0.00 71 1011.2
20260508033004 60 336 3.5 7.0 0.00 0.00 0.00 71 1011.4
20260508032904 60 336 3.5 7.0 0.00 0.00 0.00 70 1011.4
20260508032804 60 334 3.5 7.0 0.00 0.00 0.00 70 1011.3
20260508032704 60 334 3.5 7.8 0.00 0.00 0.00 70 1011.3
20260508032604 60 334 3.5 7.8 0.00 0.00 0.00 70 1011.3
20260508032504 60 334 3.5 7.8 0.00 0.00 0.00 70 1011.3
20260508032405 60 334 3.5 7.8 0.00 0.00 0.00 70 1011.4
20260508032306 60 333 3.5 7.8 0.00 0.00 0.00 70 1011.2
20260508032204 60 334 3.5 7.8 0.00 0.00 0.00 70 1011.3
20260508032104 60 333 3.5 7.8 0.00 0.00 0.00 70 1011.3
20260508032004 60 333 3.5 7.8 0.00 0.00 0.00 70 1011.5
20260508031904 60 332 3.5 7.8 0.00 0.00 0.00 70 1011.2
20260508031804 60 333 3.5 7.8 0.00 0.00 0.00 70 1011.3
20260508031704 60 332 3.5 7.0 0.00 0.00 0.00 70 1011.1
20260508031606 60 333 3.5 7.0 0.00 0.00 0.00 70 1011.3
20260508031504 60 332 3.5 8.7 0.00 0.00 0.00 70 1011.4
20260508031404 60 332 3.5 8.7 0.00 0.00 0.00 70 1011.4
20260508031304 60 333 3.5 8.7 0.00 0.00 0.00 70 1011.2
20260508031204 60 332 3.5 8.7 0.00 0.00 0.00 71 1011.3
20260508031104 60 331 3.5 8.7 0.00 0.00 0.00 71 1011.3
20260508031004 60 331 3.5 8.7 0.00 0.00 0.00 71 1011.5
20260508030905 60 332 3.5 8.7 0.00 0.00 0.00 71 1011.4
20260508030805 60 332 3.5 8.7 0.00 0.00 0.00 71 1011.5
20260508030704 60 332 3.5 8.7 0.00 0.00 0.00 71 1011.1
20260508030604 60 331 3.5 8.7 0.00 0.00 0.00 70 1011.4
20260508030504 60 332 3.5 7.8 0.00 0.00 0.00 71 1011.4
20260508030404 60 332 3.5 7.8 0.00 0.00 0.00 71 1011.4
20260508030305 60 332 3.5 7.8 0.00 0.00 0.00 70 1011.4
20260508030204 60 333 3.5 6.1 0.00 0.00 0.00 71 1011.4
20260508030104 60 334 3.5 6.1 0.00 0.00 0.00 70 1011.3
20260508030005 60 334 3.5 7.0 0.00 0.00 0.00 70 1011.4
20260508025904 60 334 3.5 7.0 0.00 0.00 0.00 71 1011.3
20260508025806 60 334 3.5 7.0 0.00 0.00 0.00 71 1011.3
20260508025704 60 335 3.5 7.0 0.00 0.00 0.00 71 1011.3
20260508025604 60 336 3.5 7.0 0.00 0.00 0.00 70 1011.4
20260508025504 60 335 3.5 7.0 0.00 0.00 0.00 70 1011.5
20260508025404 60 335 3.5 7.0 0.00 0.00 0.00 70 1011.4
20260508025306 60 335 3.5 7.0 0.00 0.00 0.00 70 1011.3
20260508025204 60 335 3.5 7.0 0.00 0.00 0.00 70 1011.4
20260508025104 60 333 3.5 7.0 0.00 0.00 0.00 70 1011.4
20260508025004 60 333 3.5 7.0 0.00 0.00 0.00 70 1011.5
20260508024904 60 333 4.3 7.0 0.00 0.00 0.00 70 1011.5
20260508024804 60 331 4.3 7.0 0.00 0.00 0.00 70 1011.4
20260508024704 60 329 4.3 7.0 0.00 0.00 0.00 70 1011.4
20260508024604 60 328 4.3 7.0 0.00 0.00 0.00 70 1011.3
20260508024504 60 328 4.3 7.0 0.00 0.00 0.00 70 1011.4
20260508024404 60 329 4.3 7.0 0.00 0.00 0.00 70 1011.4
20260508024304 60 330 3.5 7.0 0.00 0.00 0.00 70 1011.4
20260508024204 60 330 3.5 7.0 0.00 0.00 0.00 70 1011.2
20260508024104 60 330 3.5 7.0 0.00 0.00 0.00 70 1011.3
20260508024027 60 331 3.5 7.0 0.00 0.00 0.00 70 1011.3
20260508023904 60 331 3.5 7.0 0.00 0.00 0.00 70 1011.2
20260508023825 60 331 3.5 7.8 0.00 0.00 0.00 70 1011.2
20260508023704 60 334 3.5 7.8 0.00 0.00 0.00 71 1011.4
20260508023605 60 335 3.5 7.8 0.00 0.00 0.00 70 1011.4
20260508023504 60 335 3.5 7.8 0.00 0.00 0.00 70 1011.4
20260508023404 60 335 3.5 7.8 0.00 0.00 0.00 70 1011.6
20260508023304 60 334 3.5 7.8 0.00 0.00 0.00 70 1011.4
20260508023204 60 332 3.5 7.8 0.00 0.00 0.00 70 1011.4
20260508023104 60 332 3.5 7.8 0.00 0.00 0.00 70 1011.4
20260508023004 60 330 3.5 7.8 0.00 0.00 0.00 70 1011.3
20260508022904 60 330 3.5 7.8 0.00 0.00 0.00 70 1011.3
20260508022804 60 330 3.5 8.7 0.00 0.00 0.00 70 1011.5
20260508022704 60 329 3.5 8.7 0.00 0.00 0.00 70 1011.2
20260508022604 60 328 4.3 8.7 0.00 0.00 0.00 70 1011.7
20260508022525 60 328 4.3 8.7 0.00 0.00 0.00 70 1011.7
20260508022404 60 328 4.3 8.7 0.00 0.00 0.00 70 1011.4
20260508022307 60 328 4.3 8.7 0.00 0.01 0.00 70 1011.4
20260508022204 60 330 4.3 8.7 0.00 0.01 0.00 70 1011.5
20260508022104 60 330 4.3 8.7 0.00 0.01 0.00 70 1011.4
20260508022026 60 331 4.3 8.7 0.00 0.01 0.00 70 1011.4
20260508021905 60 331 4.3 8.7 0.00 0.01 0.00 70 1011.4
20260508021804 60 330 4.3 7.8 0.00 0.01 0.00 70 1011.5
20260508021704 60 330 4.3 7.8 0.00 0.01 0.00 70 1011.5
20260508021604 60 330 4.3 7.0 0.00 0.01 0.00 70 1011.5
20260508021404 60 329 4.3 7.0 0.00 0.01 0.00 70 1011.4
20260508021304 60 329 4.3 7.8 0.00 0.02 0.00 70 1011.4
20260508003204 60 343 2.6 6.1 0.00 0.08 0.00 71 1012.2
20260508003104 60 344 2.6 6.1 0.00 0.09 0.00 71 1012.1
20260508003005 60 343 2.6 6.1 0.00 0.09 0.00 71 1012.1
20260508002904 60 344 2.6 6.1 0.00 0.09 0.00 71 1012.0
20260508002804 60 343 2.6 6.1 0.00 0.10 0.00 70 1012.1
20260508002703 60 342 2.6 6.1 0.00 0.10 0.00 70 1012.1
20260508002604 60 342 2.6 6.1 0.00 0.10 0.00 70 1012.1
20260508002504 60 342 2.6 6.1 0.00 0.11 0.00 70 1012.3
20260508002404 60 341 2.6 6.1 0.00 0.12 0.00 70 1012.3
20260508002307 60 339 2.6 6.1 0.00 0.12 0.00 70 1012.2
20260508002204 60 338 2.6 5.2 0.00 0.13 0.00 70 1012.3
20260508002104 60 336 2.6 6.1 0.00 0.13 0.00 70 1012.3
20260508002004 60 336 2.6 6.1 0.00 0.14 0.00 70 1012.1
20260508001904 60 335 2.6 6.1 0.00 0.14 0.00 70 1012.2
20260508001804 60 333 2.6 6.1 0.00 0.15 0.00 70 1012.1
20260508001704 60 333 2.6 6.1 0.00 0.15 0.00 70 1012.3
20260508001604 60 333 2.6 6.1 0.00 0.15 0.00 70 1012.2
20260508001504 60 334 2.6 6.1 0.00 0.15 0.00 70 1012.2
20260508001404 60 335 2.6 6.1 0.00 0.16 0.00 70 1012.4
20260508001304 60 335 2.6 7.0 0.00 0.17 0.00 69 1012.3
20260508001204 60 335 3.5 7.0 0.00 0.17 0.00 69 1012.4
20260508001104 60 337 3.5 7.0 0.00 0.17 0.00 69 1012.4
20260508001004 61 336 3.5 7.0 0.00 0.19 0.00 69 1012.2
20260508000904 61 336 3.5 7.0 0.00 0.19 0.00 69 1012.3
20260508000804 61 336 3.5 7.0 0.00 0.19 0.00 69 1012.3
20260508000704 61 335 3.5 7.8 0.00 0.20 0.00 69 1012.3
20260508000606 61 335 3.5 7.8 0.00 0.21 0.00 69 1012.2
20260508000504 61 333 3.5 7.8 0.00 0.22 0.00 69 1012.3
20260508000405 61 333 3.5 7.8 0.00 0.22 0.00 69 1012.3
20260508000305 61 333 3.5 7.8 0.00 0.22 0.00 69 1012.4
20260508000205 61 334 3.5 7.8 0.00 0.23 0.00 69 1012.4
20260508000104 61 333 3.5 7.8 0.00 0.24 0.00 69 1012.5
20260508000004 61 333 3.5 7.8 0.00 0.26 0.00 69 1012.4
20260507235904 61 332 3.5 7.8 0.00 0.26 0.00 69 1012.5
20260507235804 61 333 3.5 7.8 0.00 0.27 0.00 69 1012.3
20260507235704 61 334 3.5 7.0 0.00 0.27 0.00 69 1012.4
20260507235604 61 334 3.5 7.0 0.00 0.28 0.00 69 1012.5
20260507235504 61 334 3.5 7.0 0.00 0.28 0.00 69 1012.4
20260507235404 61 333 3.5 7.0 0.00 0.28 0.00 69 1012.5
20260507235306 61 333 3.5 7.0 0.00 0.29 0.00 69 1012.5
20260507235204 61 334 3.5 7.0 0.00 0.30 0.00 69 1012.6
20260507235104 61 332 3.5 7.0 0.00 0.30 0.00 69 1012.4
20260507235004 61 333 3.5 7.0 0.00 0.31 0.00 69 1012.6
20260507234904 61 333 3.5 7.0 0.00 0.31 0.00 69 1012.4
20260507234804 61 329 3.5 7.0 0.00 0.32 0.00 69 1012.5
20260507234704 61 328 3.5 7.0 0.00 0.33 0.00 69 1012.6
20260507234606 61 328 3.5 7.0 0.00 0.33 0.00 69 1012.6
20260507234504 61 327 3.5 7.0 0.00 0.33 0.00 69 1012.6
20260507234404 61 327 3.5 7.0 0.00 0.33 0.00 69 1012.6
20260507234304 61 326 3.5 7.0 0.00 0.33 0.00 69 1012.5
20260507234204 61 325 3.5 7.0 0.00 0.33 0.00 69 1012.6
20260507234104 61 325 3.5 7.0 0.00 0.33 0.00 69 1012.5
20260507234004 61 325 3.5 7.8 0.00 0.34 0.00 68 1012.5
20260507233904 61 324 3.5 8.7 0.00 0.34 0.00 68 1012.6
20260507233804 61 326 3.5 8.7 0.00 0.34 0.00 68 1012.6
20260507233704 61 327 3.5 8.7 0.00 0.34 0.00 68 1012.5
20260507233604 61 327 3.5 8.7 0.00 0.34 0.00 68 1012.5
20260507233504 61 329 3.5 8.7 0.00 0.35 0.00 68 1012.4
20260507233404 61 329 3.5 8.7 0.00 0.35 0.00 68 1012.5
20260507233304 61 330 3.5 8.7 0.00 0.35 0.00 68 1012.6
20260507233204 61 331 3.5 8.7 0.00 0.35 0.00 68 1012.5
20260507233104 61 332 4.3 8.7 0.00 0.36 0.00 68 1012.6
20260507233004 61 332 3.5 8.7 0.00 0.36 0.00 68 1012.8
20260507232904 61 334 3.5 7.8 0.00 0.36 0.00 68 1012.9
20260507232804 61 333 3.5 7.8 0.00 0.36 0.00 68 1012.7
20260507232704 62 333 3.5 7.8 0.00 0.36 0.00 68 1012.7
20260507232604 62 333 3.5 7.8 0.00 0.36 0.00 68 1012.7
20260507232504 62 331 3.5 7.8 0.00 0.37 0.00 68 1012.6
20260507232404 62 330 3.5 7.8 0.00 0.37 0.00 67 1012.6
20260507232306 62 330 3.5 7.8 0.00 0.37 0.00 68 1012.7
20260507232204 62 329 3.5 7.8 0.00 0.38 0.00 68 1012.5
20260507232104 62 329 3.5 7.8 0.00 0.38 0.00 67 1012.7
20260507232004 62 330 3.5 7.8 0.00 0.38 0.00 67 1012.7
20260507231904 62 329 3.5 7.8 0.00 0.38 0.00 67 1012.6
20260507231804 62 330 3.5 7.0 0.00 0.39 0.00 68 1012.5
20260507231704 62 329 3.5 7.0 0.00 0.39 0.00 68 1012.6
20260507231604 62 331 3.5 7.0 0.00 0.39 0.00 68 1012.7
20260507231504 62 329 3.5 7.0 0.00 0.39 0.00 68 1012.6
20260507231404 62 332 3.5 7.0 0.00 0.39 0.00 67 1012.8
20260507231304 62 331 3.5 7.0 0.00 0.39 0.00 68 1012.7
20260507231204 62 332 2.6 7.0 0.00 0.39 0.00 68 1012.8
20260507231104 62 330 2.6 7.0 0.00 0.39 0.00 68 1012.7
20260507231004 62 328 2.6 7.8 0.00 0.39 0.00 67 1012.8
20260507230904 62 328 2.6 7.8 0.00 0.39 0.00 67 1012.9
20260507230804 62 327 3.5 7.8 0.00 0.39 0.00 67 1012.8
20260507230704 62 326 3.5 8.7 0.00 0.39 0.00 67 1012.8
20260507230605 62 324 3.5 8.7 0.00 0.39 0.00 67 1012.7
20260507230504 62 324 3.5 8.7 0.00 0.39 0.00 67 1012.9
20260507230304 62 323 3.5 8.7 0.00 0.39 0.00 67 1012.9
20260507230204 62 322 3.5 8.7 0.00 0.39 0.00 67 1012.9
20260507230104 62 324 3.5 8.7 0.00 0.39 0.00 67 1013.0
20260507230005 62 322 3.5 8.7 0.00 0.39 0.00 67 1012.9
20260507225904 62 322 3.5 8.7 0.00 0.39 0.00 67 1012.8
20260507225704 62 323 3.5 8.7 0.00 0.39 0.00 68 1013.0
20260507225605 62 321 3.5 8.7 0.00 0.39 0.00 67 1012.9
20260507225525 62 320 3.5 8.7 0.00 0.39 0.00 68 1012.9
20260507225404 62 320 4.3 8.7 0.00 0.39 0.00 67 1013.0
20260507225306 62 318 3.5 7.8 0.00 0.39 0.00 68 1013.0
20260507225204 62 318 3.5 7.8 0.00 0.39 0.00 68 1013.1
20260507225104 62 316 3.5 7.8 0.00 0.39 0.00 67 1013.0
20260507225025 62 320 3.5 7.8 0.00 0.39 0.00 67 1013.0
20260507223104 62 327 3.5 7.0 0.00 0.39 0.00 67 1013.2
20260507223004 62 327 3.5 7.0 0.00 0.39 0.00 67 1013.3
20260507222904 62 327 3.5 7.0 0.00 0.39 0.00 67 1013.2
20260507222804 62 325 3.5 7.0 0.00 0.39 0.00 67 1013.3
20260507222704 62 324 3.5 7.0 0.00 0.40 0.00 67 1013.4
20260507222605 62 323 3.5 7.0 0.00 0.40 0.00 67 1013.3
20260507222504 62 319 3.5 7.0 0.00 0.40 0.00 67 1013.5
20260507222425 62 321 3.5 7.0 0.00 0.40 0.00 67 1013.5
20260507222306 62 320 3.5 7.0 0.00 0.40 0.00 66 1013.4
20260507222204 62 319 3.5 7.0 0.00 0.40 0.00 66 1013.6
20260507222104 62 321 3.5 7.0 0.00 0.40 0.00 66 1013.6
20260507222004 62 319 3.5 7.0 0.00 0.40 0.00 66 1013.3
20260507221904 62 319 3.5 7.0 0.00 0.40 0.00 66 1013.4
20260507221804 62 322 3.5 7.0 0.00 0.40 0.00 66 1013.4
20260507221704 62 322 3.5 7.0 0.00 0.40 0.00 66 1013.4
20260507221604 62 322 3.5 7.0 0.00 0.40 0.00 66 1013.5
20260507221504 62 324 3.5 7.0 0.00 0.40 0.00 66 1013.5
20260507221404 62 323 3.5 7.0 0.00 0.40 0.00 66 1013.4
20260507221304 62 324 3.5 7.0 0.00 0.40 0.00 66 1013.5
20260507221204 62 325 3.5 7.0 0.00 0.40 0.00 66 1013.5
20260507221104 62 323 3.5 7.0 0.00 0.40 0.00 66 1013.5
20260507221004 62 324 3.5 7.0 0.00 0.40 0.00 66 1013.6
20260507220904 62 323 3.5 7.0 0.00 0.40 0.00 66 1013.5
20260507220804 62 321 3.5 7.0 0.00 0.40 0.00 66 1013.5
20260507220704 62 321 3.5 6.1 0.00 0.40 0.00 66 1013.6
20260507220604 62 322 3.5 7.0 0.00 0.40 0.00 66 1013.5
20260507220504 62 323 3.5 7.0 0.00 0.40 0.00 66 1013.6
20260507220404 62 323 3.5 7.0 0.00 0.40 0.00 66 1013.4
20260507220304 62 323 3.5 7.0 0.00 0.40 0.00 66 1013.5
20260507220204 62 322 3.5 7.0 0.00 0.40 0.00 66 1013.5
20260507220104 62 324 3.5 7.0 0.00 0.40 0.00 66 1013.5
20260507220005 62 324 3.5 7.0 0.00 0.40 0.00 66 1013.6
20260507215904 62 326 3.5 7.0 0.00 0.40 0.40 66 1013.6
20260507215804 62 328 3.5 7.0 0.00 0.40 0.40 66 1013.6
20260507215704 63 328 3.5 7.0 0.00 0.40 0.40 66 1013.4
20260507215604 62 328 3.5 6.1 0.00 0.41 0.40 66 1013.4
20260507215504 62 327 3.5 6.1 0.00 0.41 0.40 66 1013.3
20260507215403 63 328 3.5 6.1 0.00 0.41 0.40 66 1013.5
20260507215306 63 327 3.5 6.1 0.00 0.41 0.40 66 1013.6
20260507215204 63 326 3.5 6.1 0.00 0.41 0.40 66 1013.6
20260507215104 62 328 3.5 6.1 0.00 0.41 0.40 66 1013.5
20260507215004 63 329 3.5 6.1 0.00 0.41 0.40 66 1013.6
20260507214904 63 327 2.6 6.1 0.00 0.41 0.40 66 1013.5
20260507214804 63 322 3.5 6.1 0.00 0.41 0.40 66 1013.5
20260507214704 63 320 3.5 7.0 0.00 0.41 0.40 66 1013.4
20260507214604 63 317 3.5 7.0 0.00 0.41 0.40 65 1013.7
20260507214504 62 317 3.5 7.0 0.00 0.41 0.40 66 1013.6
20260507214404 62 313 3.5 7.0 0.00 0.41 0.40 66 1013.6
20260507214304 62 311 3.5 7.0 0.00 0.42 0.40 66 1013.6
20260507214204 62 309 3.5 7.0 0.00 0.42 0.40 66 1013.6
20260507214104 62 308 3.5 7.0 0.00 0.42 0.40 66 1013.6
20260507214004 62 306 3.5 7.0 0.00 0.42 0.40 66 1013.7
20260507213904 62 305 3.5 7.0 0.00 0.42 0.40 65 1013.6
20260507213804 62 308 3.5 7.0 0.00 0.42 0.40 66 1013.8
20260507213704 62 307 3.5 7.0 0.00 0.43 0.40 66 1013.7
20260507213604 62 309 3.5 7.0 0.00 0.43 0.40 66 1014.0
20260507213504 62 308 3.5 7.0 0.00 0.43 0.40 66 1013.7
20260507213404 62 309 3.5 7.0 0.00 0.43 0.40 66 1013.7
20260507213305 62 309 3.5 7.0 0.00 0.43 0.40 66 1013.7
20260507213204 62 310 3.5 7.0 0.00 0.43 0.40 66 1013.8
20260507213105 62 310 3.5 7.0 0.00 0.43 0.40 66 1013.7
20260507213005 62 310 2.6 7.0 0.00 0.43 0.40 66 1013.7
20260507212905 62 309 2.6 7.0 0.00 0.43 0.40 66 1013.8
20260507212805 62 306 2.6 7.0 0.00 0.43 0.40 66 1013.8
20260507212705 62 306 2.6 7.0 0.00 0.43 0.40 66 1013.6
20260507212604 62 306 2.6 7.0 0.00 0.43 0.40 66 1013.8
20260507212504 62 308 2.6 7.0 0.00 0.43 0.40 66 1013.8
20260507212404 62 311 2.6 7.0 0.00 0.43 0.40 66 1013.5
20260507212307 62 312 2.6 7.8 0.00 0.43 0.40 66 1013.6
20260507212204 62 315 2.6 7.8 0.00 0.43 0.40 66 1013.6
20260507212104 62 315 2.6 7.8 0.00 0.43 0.40 66 1013.5
20260507212004 62 317 2.6 7.8 0.00 0.43 0.40 66 1013.6
20260507211904 62 322 3.5 7.8 0.00 0.43 0.40 65 1013.8
20260507211804 62 323 3.5 7.8 0.00 0.43 0.40 65 1013.6
20260507211704 62 326 3.5 7.8 0.00 0.43 0.40 65 1013.6
20260507211604 62 327 3.5 7.8 0.00 0.43 0.40 65 1013.6
20260507211504 62 327 3.5 7.8 0.00 0.43 0.40 65 1013.5
20260507211404 62 326 3.5 7.8 0.00 0.43 0.40 65 1013.7
20260507211305 62 330 3.5 6.1 0.00 0.43 0.40 65 1013.7
20260507211203 62 328 3.5 6.1 0.00 0.43 0.40 65 1013.7
20260507211103 62 330 3.5 6.1 0.00 0.44 0.40 65 1013.6
20260507211004 62 329 3.5 6.1 0.00 0.44 0.40 65 1013.6
20260507210904 62 326 3.5 6.1 0.00 0.44 0.40 65 1013.7
20260507210826 62 329 3.5 6.1 0.00 0.44 0.40 65 1013.7
20260507210703 62 329 3.5 6.1 0.00 0.44 0.40 65 1013.5
20260507210603 62 328 3.5 7.0 0.00 0.44 0.40 64 1013.7
20260507210504 62 325 3.5 7.0 0.00 0.45 0.40 64 1013.7
20260507210403 62 327 3.5 7.0 0.00 0.45 0.40 64 1013.7
20260507210304 62 326 3.5 7.0 0.00 0.45 0.40 64 1013.7
20260507210204 62 327 3.5 7.0 0.00 0.45 0.40 64 1013.8
20260507210104 62 326 3.5 7.0 0.00 0.45 0.40 64 1013.7
20260507210004 62 328 3.5 7.0 0.00 0.46 0.40 64 1013.7
20260507205904 62 329 3.5 7.0 0.00 0.46 0.40 64 1013.8
20260507205804 62 329 3.5 7.0 0.00 0.46 0.40 64 1013.7
20260507205704 62 326 2.6 7.0 0.00 0.46 0.40 64 1013.6
20260507205604 62 326 2.6 7.0 0.00 0.47 0.40 64 1013.7
20260507205504 62 330 2.6 7.0 0.00 0.47 0.40 65 1013.8
20260507205404 62 331 2.6 7.0 0.00 0.47 0.40 65 1013.8
20260507205306 62 331 2.6 7.0 0.00 0.47 0.40 65 1013.7
20260507205204 62 331 2.6 5.2 0.00 0.48 0.40 65 1013.8
20260507205104 62 330 2.6 5.2 0.00 0.48 0.40 64 1013.7
20260507205004 62 329 2.6 5.2 0.00 0.48 0.40 65 1013.6
20260507204904 62 331 2.6 5.2 0.00 0.48 0.40 65 1013.8
20260507204804 62 330 2.6 5.2 0.00 0.48 0.40 65 1013.7
20260507204704 62 330 2.6 5.2 0.00 0.48 0.40 64 1013.6
20260507204604 62 332 2.6 5.2 0.00 0.48 0.40 64 1013.8
20260507204504 63 330 2.6 5.2 0.00 0.48 0.40 65 1013.7
20260507204404 63 331 2.6 5.2 0.00 0.48 0.40 64 1013.6
20260507204305 63 330 2.6 5.2 0.00 0.48 0.40 64 1013.8
20260507204204 63 327 2.6 5.2 0.00 0.48 0.40 64 1013.7
20260507204104 63 328 2.6 5.2 0.00 0.49 0.40 64 1013.7
20260507204004 63 329 2.6 5.2 0.00 0.49 0.40 64 1013.7
20260507203904 63 327 2.6 5.2 0.00 0.49 0.40 64 1013.7
20260507203804 63 328 2.6 6.1 0.00 0.49 0.40 64 1013.6
20260507203704 63 328 2.6 6.1 0.00 0.49 0.40 64 1013.5
20260507203604 63 326 2.6 7.0 0.00 0.49 0.40 65 1013.6
20260507203504 63 326 2.6 7.0 0.00 0.50 0.40 65 1013.7
20260507203403 63 323 2.6 7.0 0.00 0.50 0.40 64 1013.8
20260507203304 63 322 2.6 7.0 0.00 0.50 0.40 64 1013.6
20260507203205 63 323 2.6 7.0 0.00 0.50 0.40 64 1013.6
20260507203104 63 321 2.6 7.0 0.00 0.50 0.40 64 1013.9
20260507203004 63 320 2.6 7.0 0.00 0.50 0.40 64 1013.7
20260507202903 63 319 2.6 7.0 0.00 0.50 0.40 64 1013.7
20260507202804 63 317 2.6 7.0 0.00 0.50 0.40 64 1013.6
20260507202703 63 319 2.6 7.0 0.00 0.50 0.40 65 1013.6
20260507202603 63 318 2.6 7.0 0.00 0.50 0.40 65 1013.7
20260507202503 63 319 2.6 5.2 0.00 0.50 0.40 65 1013.7
20260507202404 63 319 2.6 5.2 0.00 0.50 0.40 65 1013.7
20260507202306 63 321 2.6 5.2 0.00 0.50 0.40 65 1013.6
20260507202204 63 320 2.6 5.2 0.00 0.50 0.40 65 1013.8
20260507202104 63 321 2.6 5.2 0.00 0.50 0.40 65 1013.7
20260507202004 63 321 2.6 5.2 0.00 0.50 0.40 65 1013.7
20260507201904 63 320 2.6 6.1 0.00 0.50 0.40 65 1013.6
20260507201804 63 320 2.6 6.1 0.00 0.50 0.40 65 1013.6
20260507201705 63 316 2.6 6.1 0.00 0.50 0.40 65 1013.6
20260507201605 63 315 3.5 6.1 0.00 0.50 0.40 66 1013.8
20260507201504 63 312 2.6 6.1 0.00 0.50 0.40 66 1013.7
20260507201404 63 311 2.6 6.1 0.00 0.50 0.40 66 1013.7
20260507201305 63 308 2.6 6.1 0.00 0.50 0.40 66 1013.7
20260507201204 62 305 2.6 6.1 0.00 0.50 0.40 68 1013.8
20260507201104 62 304 2.6 6.1 0.00 0.50 0.40 67 1013.7
20260507201004 62 301 3.5 7.0 0.00 0.50 0.40 69 1013.6
20260507200904 62 300 3.5 7.0 0.00 0.50 0.40 70 1013.7
20260507200804 62 300 3.5 7.0 0.00 0.50 0.40 70 1013.9
20260507200703 62 300 3.5 7.0 0.00 0.50 0.40 70 1013.5
20260507200603 62 299 3.5 7.0 0.00 0.50 0.40 71 1013.7
20260507200504 62 300 3.5 7.8 0.00 0.50 0.40 70 1013.7
20260507200403 62 298 3.5 7.8 0.00 0.50 0.40 71 1013.7
20260507200304 62 298 3.5 7.8 0.00 0.50 0.40 71 1013.6
20260507200204 62 298 3.5 7.8 0.00 0.50 0.40 71 1013.7
20260507200104 62 296 3.5 7.8 0.00 0.50 0.40 71 1013.7
20260507200004 62 297 3.5 7.8 0.00 0.50 0.40 72 1013.9
20260507195903 62 297 3.5 7.8 0.00 0.50 0.40 72 1013.6
20260507195804 62 295 3.5 7.8 0.00 0.50 0.40 72 1013.7
20260507195704 62 296 3.5 7.8 0.00 0.50 0.40 72 1013.8
20260507195604 62 296 3.5 7.8 0.00 0.50 0.40 73 1013.7
20260507195504 62 295 3.5 7.0 0.00 0.50 0.40 73 1013.8
20260507195403 62 294 3.5 7.0 0.00 0.50 0.40 73 1013.8
20260507195305 62 295 3.5 6.1 0.00 0.50 0.40 73 1013.8
20260507195203 62 293 3.5 6.1 0.00 0.50 0.40 73 1013.8
20260507195103 62 294 3.5 6.1 0.00 0.50 0.40 73 1013.6
20260507195004 62 292 3.5 6.1 0.00 0.50 0.40 73 1013.6
20260507194904 62 293 3.5 8.7 0.00 0.50 0.40 73 1013.6
20260507194804 63 293 3.5 8.7 0.00 0.50 0.40 73 1013.8
20260507194703 63 292 3.5 8.7 0.00 0.50 0.40 73 1013.7
20260507194604 63 292 3.5 8.7 0.00 0.50 0.40 73 1013.7
20260507194504 63 293 3.5 8.7 0.00 0.50 0.40 73 1013.7
20260507194404 63 292 3.5 8.7 0.00 0.50 0.40 73 1013.7
20260507194304 63 292 3.5 8.7 0.00 0.50 0.40 72 1013.6
20260507194204 63 292 3.5 8.7 0.00 0.50 0.40 72 1013.6
20260507194106 63 292 3.5 8.7 0.00 0.50 0.40 72 1013.8
20260507194004 63 294 3.5 8.7 0.00 0.50 0.40 72 1013.5
20260507193904 63 292 3.5 7.8 0.00 0.50 0.40 72 1013.6
20260507193804 63 292 3.5 7.8 0.00 0.50 0.40 72 1013.6
20260507193705 63 292 3.5 7.8 0.00 0.50 0.40 72 1013.7
20260507193604 63 290 4.3 9.6 0.00 0.50 0.40 72 1013.5
20260507193504 63 290 3.5 9.6 0.00 0.50 0.40 72 1013.7
20260507193404 63 291 4.3 9.6 0.00 0.50 0.40 72 1013.8
20260507193304 63 291 3.5 9.6 0.00 0.50 0.40 72 1013.8
20260507193204 63 292 3.5 9.6 0.00 0.50 0.40 72 1013.6
20260507193104 63 292 3.5 10.4 0.00 0.50 0.40 72 1013.5
20260507193004 63 290 4.3 10.4 0.00 0.50 0.40 72 1013.7
20260507192904 63 292 3.5 10.4 0.00 0.50 0.40 72 1013.5
20260507192704 63 291 3.5 10.4 0.00 0.50 0.40 71 1013.6
20260507192604 63 295 3.5 10.4 0.00 0.50 0.40 71 1013.6
20260507192505 63 294 3.5 10.4 0.00 0.50 0.40 71 1013.5
20260507192404 63 293 3.5 10.4 0.00 0.50 0.40 71 1013.6
20260507192306 63 292 3.5 10.4 0.00 0.50 0.40 71 1013.6
20260507192204 63 289 3.5 10.4 0.00 0.50 0.40 71 1013.5
20260507192125 63 290 3.5 10.4 0.00 0.50 0.40 71 1013.5
20260507182005 66 315 1.7 5.2 0.00 0.52 0.40 65 1013.4
20260507181904 66 319 1.7 5.2 0.00 0.52 0.40 66 1013.6
20260507181804 66 324 1.7 3.5 0.00 0.52 0.40 66 1013.6
20260507181704 66 328 1.7 3.5 0.00 0.52 0.40 66 1013.6
20260507181625 66 330 1.7 3.5 0.00 0.52 0.40 65 1013.6
20260507181304 67 335 1.7 3.5 0.00 0.52 0.40 65 1013.4
20260507181204 67 336 1.7 3.5 0.00 0.52 0.40 65 1013.6
20260507181104 67 336 1.7 3.5 0.00 0.52 0.40 66 1013.6
20260507181004 67 336 1.7 3.5 0.00 0.52 0.40 66 1013.6
20260507180805 67 340 1.7 3.5 0.00 0.53 0.40 65 1013.5
20260507180725 67 339 1.7 3.5 0.00 0.53 0.40 65 1013.5
20260507180625 67 339 1.7 3.5 0.00 0.53 0.40 65 1013.6
20260507180525 67 338 1.7 3.5 0.00 0.53 0.40 65 1013.7
20260507180425 67 340 1.7 3.5 0.00 0.53 0.40 65 1013.5
20260507180305 67 338 1.7 3.5 0.00 0.53 0.40 65 1013.7
20260507180204 67 341 1.7 3.5 0.00 0.53 0.40 65 1013.6
20260507180104 67 344 0.9 2.6 0.00 0.53 0.40 65 1013.7
20260507175904 67 348 0.9 2.6 0.00 0.53 0.40 65 1013.6
20260507175805 67 349 0.9 2.6 0.00 0.53 0.40 65 1013.7
20260507175704 67 353 0.9 2.6 0.00 0.54 0.40 64 1013.7
20260507175625 67 352 0.9 2.6 0.00 0.54 0.40 64 1013.7
20260507175504 67 353 0.9 2.6 0.00 0.54 0.40 64 1013.4
20260507175404 68 355 0.9 2.6 0.00 0.54 0.40 64 1013.6
20260507175306 68 356 0.9 2.6 0.00 0.55 0.40 63 1013.5
20260507175204 68 352 0.9 2.6 0.00 0.55 0.40 64 1013.7
20260507175104 68 351 0.9 2.6 0.00 0.55 0.40 64 1013.7
20260507175004 68 350 0.9 2.6 0.00 0.55 0.40 63 1013.8
20260507174904 68 348 1.7 2.6 0.00 0.55 0.40 63 1013.7
20260507174804 68 346 1.7 2.6 0.00 0.56 0.40 63 1013.6
20260507174726 68 346 0.9 2.6 0.00 0.56 0.40 62 1013.6
20260507174625 68 345 0.9 2.6 0.00 0.56 0.40 62 1013.6
20260507174504 68 345 0.9 2.6 0.00 0.56 0.40 62 1013.6
20260507174404 68 346 1.7 2.6 0.00 0.56 0.40 62 1013.5
20260507174304 68 349 0.9 2.6 0.00 0.57 0.40 62 1013.5
20260507174204 69 350 0.9 2.6 0.00 0.57 0.40 62 1013.4
20260507174125 69 350 0.9 2.6 0.00 0.57 0.40 62 1013.4
20260507174004 69 353 0.9 2.6 0.00 0.57 0.40 62 1013.4
20260507173905 69 355 0.9 2.6 0.00 0.57 0.40 62 1013.5
20260507173705 69 356 0.9 2.6 0.00 0.57 0.40 62 1013.5
20260507173604 69 358 0.9 2.6 0.00 0.57 0.40 62 1013.4
20260507173525 69 358 0.9 2.6 0.00 0.57 0.40 62 1013.4
20260507173404 69 355 0.9 2.6 0.00 0.57 0.40 62 1013.5
20260507173304 69 354 0.9 2.6 0.00 0.57 0.40 62 1013.8
20260507173204 69 355 0.9 2.6 0.00 0.57 0.40 62 1013.6
20260507173104 69 354 0.9 2.6 0.00 0.57 0.40 61 1013.6
20260507173004 69 350 1.7 3.5 0.00 0.57 0.40 61 1013.5
20260507172904 69 349 1.7 3.5 0.00 0.57 0.40 61 1013.7
20260507172804 69 351 1.7 3.5 0.00 0.57 0.40 61 1013.7
20260507172724 69 350 1.7 3.5 0.00 0.57 0.40 60 1013.7
20260507172604 69 350 1.7 3.5 0.00 0.57 0.40 60 1013.5
20260507172504 69 349 1.7 3.5 0.00 0.57 0.40 60 1013.6
20260507172403 69 349 1.7 3.5 0.00 0.57 0.40 59 1013.6
20260507172325 70 349 1.7 3.5 0.00 0.57 0.40 60 1013.6
20260507172205 70 356 1.7 3.5 0.00 0.57 0.40 60 1013.5
20260507172104 70 360 1.7 3.5 0.00 0.57 0.40 59 1013.7
20260507172026 70 4 1.7 3.5 0.00 0.57 0.40 59 1013.7
20260507171906 70 7 1.7 3.5 0.00 0.57 0.40 59 1013.5
20260507171825 70 9 1.7 3.5 0.00 0.57 0.40 59 1013.5
20260507171704 70 12 1.7 3.5 0.00 0.57 0.40 59 1013.5
20260507171604 70 5 1.7 3.5 0.00 0.57 0.40 59 1013.6
20260507171504 70 5 1.7 3.5 0.00 0.57 0.40 58 1013.5
20260507171404 70 7 1.7 3.5 0.00 0.57 0.40 58 1013.4
20260507171304 70 2 1.7 4.3 0.00 0.57 0.40 57 1013.6
20260507171204 70 355 1.7 4.3 0.00 0.57 0.40 57 1013.5
20260507171104 70 353 1.7 4.3 0.00 0.57 0.40 57 1013.5
20260507171004 70 352 1.7 4.3 0.00 0.57 0.40 57 1013.5
20260507170924 70 351 1.7 4.3 0.00 0.57 0.40 57 1013.5
20260507170803 71 350 1.7 5.2 0.00 0.57 0.40 57 1013.5
20260507170704 71 352 1.7 5.2 0.00 0.57 0.40 57 1013.5
20260507170604 71 360 1.7 5.2 0.00 0.57 0.40 56 1013.4
20260507170504 71 360 1.7 5.2 0.00 0.57 0.40 56 1013.6
20260507170404 71 360 1.7 5.2 0.00 0.57 0.40 56 1013.2
20260507170304 71 4 1.7 5.2 0.00 0.57 0.40 56 1013.4
20260507170204 71 7 1.7 5.2 0.00 0.57 0.40 56 1013.6
20260507170104 71 8 1.7 5.2 0.00 0.57 0.40 56 1013.3
20260507170005 71 5 1.7 5.2 0.00 0.57 0.40 56 1013.3
20260507165904 71 3 1.7 5.2 0.00 0.57 0.40 56 1013.5
20260507165804 71 5 1.7 5.2 0.00 0.57 0.40 56 1013.4
20260507165705 71 6 1.7 5.2 0.00 0.57 0.40 56 1013.4
20260507165504 71 357 1.7 5.2 0.00 0.57 0.40 55 1013.3
20260507165404 71 1 1.7 5.2 0.00 0.57 0.40 55 1013.4
20260507165306 71 356 1.7 4.3 0.00 0.57 0.40 56 1013.4
20260507165204 71 352 1.7 4.3 0.00 0.57 0.40 55 1013.4
20260507165104 71 350 1.7 4.3 0.00 0.57 0.40 55 1013.4
20260507165004 71 350 1.7 5.2 0.00 0.57 0.40 55 1013.4
20260507164904 72 350 1.7 5.2 0.00 0.57 0.40 55 1013.3
20260507164804 72 350 1.7 5.2 0.00 0.57 0.40 54 1013.4
20260507164705 72 350 1.7 5.2 0.00 0.57 0.40 54 1013.3
20260507164625 72 352 1.7 5.2 0.00 0.57 0.40 54 1013.3
20260507164504 72 358 1.7 5.2 0.00 0.57 0.40 54 1013.5
20260507164404 72 357 1.7 5.2 0.00 0.57 0.40 54 1013.4
20260507164304 72 357 1.7 5.2 0.00 0.57 0.40 54 1013.4
20260507164204 72 5 1.7 5.2 0.00 0.57 0.40 54 1013.4
20260507164126 72 10 1.7 5.2 0.00 0.57 0.40 53 1013.4
20260507164004 72 14 1.7 3.5 0.00 0.57 0.40 53 1013.5
20260507163925 72 11 1.7 3.5 0.00 0.57 0.40 54 1013.5
20260507163804 72 15 1.7 4.3 0.00 0.57 0.40 53 1013.3
20260507163704 72 11 1.7 4.3 0.00 0.57 0.40 53 1013.5
20260507163604 72 7 1.7 4.3 0.00 0.57 0.40 53 1013.2
20260507163504 72 358 1.7 5.2 0.00 0.57 0.40 53 1013.4
20260507163404 72 354 1.7 5.2 0.00 0.57 0.40 53 1013.5
20260507163304 72 353 2.6 5.2 0.00 0.57 0.40 53 1013.4
20260507163204 72 351 2.6 5.2 0.00 0.57 0.40 54 1013.4
20260507163105 72 346 2.6 6.1 0.00 0.57 0.40 54 1013.5
20260507163004 72 347 2.6 6.1 0.00 0.57 0.40 54 1013.6
20260507162905 72 350 2.6 6.1 0.00 0.57 0.40 53 1013.3
20260507162805 72 350 2.6 6.1 0.00 0.57 0.40 53 1013.5
20260507162705 72 350 2.6 6.1 0.00 0.57 0.40 53 1013.4
20260507162604 72 349 2.6 6.1 0.00 0.57 0.40 53 1013.4
20260507162504 72 353 2.6 6.1 0.00 0.57 0.40 52 1013.7
20260507162425 72 355 2.6 6.1 0.00 0.57 0.40 52 1013.7
20260507162307 73 353 2.6 6.1 0.00 0.57 0.40 52 1013.5
20260507162225 73 354 2.6 6.1 0.00 0.57 0.40 52 1013.5
20260507162104 73 356 1.7 5.2 0.00 0.57 0.40 52 1013.4
20260507162004 73 353 1.7 5.2 0.00 0.57 0.40 52 1013.5
20260507161905 73 350 1.7 5.2 0.00 0.57 0.40 51 1013.4
20260507161804 73 351 1.7 5.2 0.00 0.57 0.40 51 1013.5
20260507161703 73 354 1.7 5.2 0.00 0.57 0.40 51 1013.3
20260507161603 73 359 1.7 5.2 0.00 0.57 0.40 52 1013.4
20260507161525 73 359 1.7 5.2 0.00 0.57 0.40 52 1013.4
20260507161404 73 357 1.7 5.2 0.00 0.57 0.40 51 1013.5
20260507161304 73 359 1.7 5.2 0.00 0.57 0.40 52 1013.4
20260507161204 73 3 1.7 5.2 0.00 0.57 0.40 52 1013.3
20260507161124 73 5 1.7 5.2 0.00 0.57 0.40 51 1013.3
20260507161004 73 19 1.7 5.2 0.00 0.57 0.40 52 1013.3
20260507160904 73 30 1.7 5.2 0.00 0.57 0.40 52 1013.1
20260507160803 73 36 1.7 5.2 0.00 0.57 0.40 51 1013.4
20260507160703 73 39 2.6 7.0 0.00 0.57 0.40 51 1013.2
20260507160603 73 36 2.6 7.0 0.00 0.57 0.40 51 1013.3
20260507160503 73 37 2.6 7.0 0.00 0.57 0.40 51 1013.2
20260507160405 73 43 2.6 7.0 0.00 0.57 0.40 50 1013.4
20260507160304 74 42 2.6 7.0 0.00 0.57 0.40 50 1013.3
20260507160203 74 44 2.6 7.0 0.00 0.57 0.40 49 1013.5
20260507160105 74 49 2.6 7.0 0.00 0.57 0.40 49 1013.4
20260507160004 74 47 2.6 7.0 0.00 0.57 0.40 49 1013.4
20260507155903 74 43 2.6 7.0 0.00 0.57 0.40 48 1013.2
20260507155824 74 41 2.6 7.0 0.00 0.57 0.40 50 1013.2
20260507155725 74 39 1.7 6.1 0.00 0.57 0.40 49 1013.3
20260507155625 74 39 1.7 6.1 0.00 0.57 0.40 50 1013.2
20260507155504 74 37 1.7 6.1 0.00 0.57 0.40 50 1013.3
20260507155404 74 31 1.7 6.1 0.00 0.57 0.40 49 1013.1
20260507155324 74 29 1.7 4.3 0.00 0.57 0.40 49 1013.1
20260507155204 74 19 1.7 4.3 0.00 0.57 0.40 50 1013.2
20260507155104 74 11 1.7 4.3 0.00 0.57 0.40 50 1013.2
20260507155003 74 9 1.7 4.3 0.00 0.57 0.40 50 1013.3
20260507154904 74 356 1.7 4.3 0.00 0.57 0.40 50 1013.1
20260507154804 74 348 1.7 3.5 0.00 0.57 0.40 50 1013.2
20260507154704 74 336 1.7 6.1 0.00 0.57 0.40 50 1013.2
20260507154604 74 329 1.7 7.8 0.00 0.57 0.40 51 1013.1
20260507154504 74 326 2.6 7.8 0.00 0.57 0.40 51 1013.2
20260507154425 74 326 2.6 7.8 0.00 0.57 0.40 50 1013.2
20260507154303 73 329 2.6 7.8 0.00 0.57 0.40 49 1013.3
20260507154204 74 330 2.6 7.8 0.00 0.57 0.40 49 1013.2
20260507154125 74 332 2.6 7.8 0.00 0.57 0.40 49 1013.2
20260507154007 73 331 2.6 7.8 0.00 0.57 0.40 49 1013.2
20260507153903 73 336 2.6 7.8 0.00 0.57 0.40 49 1013.3
20260507153805 73 345 2.6 7.8 0.00 0.57 0.40 49 1013.3
20260507153704 73 352 2.6 7.8 0.00 0.57 0.40 49 1013.4
20260507153604 73 5 1.7 7.8 0.00 0.57 0.40 49 1013.4
20260507153504 73 24 1.7 5.2 0.00 0.57 0.40 50 1013.3
20260507153404 73 33 1.7 4.3 0.00 0.57 0.40 49 1013.4
20260507153304 74 36 1.7 4.3 0.00 0.57 0.40 50 1013.5
20260507153226 74 38 1.7 4.3 0.00 0.57 0.40 50 1013.5
20260507153104 74 33 1.7 4.3 0.00 0.57 0.40 50 1013.5
20260507153004 74 42 1.7 9.6 0.00 0.57 0.40 49 1013.4
20260507152904 74 39 2.6 9.6 0.00 0.57 0.40 49 1013.5
20260507152804 74 32 2.6 9.6 0.00 0.57 0.40 50 1013.4
20260507152725 74 31 2.6 9.6 0.00 0.57 0.40 50 1013.4
20260507152625 74 38 2.6 9.6 0.00 0.57 0.40 49 1013.3
20260507152504 74 25 2.6 9.6 0.00 0.57 0.40 48 1013.4
20260507152404 74 17 2.6 9.6 0.00 0.57 0.40 48 1013.4
20260507152306 74 12 2.6 9.6 0.00 0.57 0.40 48 1013.5
20260507152204 74 9 3.5 9.6 0.00 0.57 0.40 49 1013.5
20260507152104 75 7 3.5 9.6 0.00 0.57 0.40 49 1013.6
20260507151904 74 345 2.6 7.8 0.00 0.57 0.40 49 1013.6
20260507151804 75 343 2.6 7.8 0.00 0.57 0.40 49 1013.5
20260507151704 75 340 2.6 7.8 0.00 0.57 0.40 48 1013.5
20260507151604 75 336 2.6 7.8 0.00 0.57 0.40 48 1013.5
20260507151504 75 330 2.6 7.8 0.00 0.57 0.40 48 1013.5
20260507151404 75 326 2.6 7.8 0.00 0.57 0.40 48 1013.5
20260507151304 74 315 2.6 7.8 0.00 0.57 0.40 49 1013.5
20260507151225 74 307 2.6 6.1 0.00 0.57 0.40 50 1013.5
20260507151104 74 307 2.6 6.1 0.00 0.57 0.40 49 1013.4
20260507151004 75 308 2.6 7.0 0.00 0.57 0.40 48 1013.5
20260507150905 75 313 2.6 8.7 0.00 0.57 0.40 48 1013.6
20260507150804 75 313 2.6 8.7 0.00 0.57 0.40 48 1013.4
20260507150704 75 308 2.6 8.7 0.00 0.57 0.40 48 1013.4
20260507150604 75 305 2.6 8.7 0.00 0.57 0.40 48 1013.6
20260507150525 75 302 2.6 8.7 0.00 0.57 0.40 48 1013.6
20260507150404 75 298 2.6 8.7 0.00 0.57 0.40 47 1013.5
20260507150305 75 305 2.6 8.7 0.00 0.57 0.40 48 1013.6
20260507150204 76 310 2.6 8.7 0.00 0.57 0.40 47 1013.5
20260507150104 76 313 1.7 8.7 0.00 0.57 0.40 47 1013.7
20260507150005 76 321 1.7 8.7 0.00 0.57 0.40 47 1013.7
20260507145904 76 309 1.7 3.5 0.00 0.57 0.40 48 1013.5
20260507145804 76 318 1.7 3.5 0.00 0.57 0.40 49 1013.5
20260507145725 76 336 1.7 3.5 0.00 0.57 0.40 49 1013.5
20260507145625 76 7 0.9 3.5 0.00 0.57 0.40 49 1013.4
20260507145504 76 11 0.9 2.6 0.00 0.57 0.40 49 1013.6
20260507145404 75 1 0.9 2.6 0.00 0.57 0.40 49 1013.4
20260507145306 75 350 0.9 3.5 0.00 0.57 0.40 49 1013.6
20260507145204 75 347 0.9 3.5 0.00 0.57 0.40 48 1013.7
20260507145104 75 336 1.7 4.3 0.00 0.57 0.40 50 1013.8
20260507144904 75 323 1.7 4.3 0.00 0.57 0.40 49 1013.7
20260507144804 75 323 1.7 4.3 0.00 0.57 0.40 50 1013.8
20260507144704 75 320 1.7 4.3 0.00 0.57 0.40 49 1013.7
20260507144605 74 316 1.7 4.3 0.00 0.57 0.40 48 1013.5
20260507144504 74 321 1.7 5.2 0.00 0.57 0.40 48 1013.7
20260507144404 74 321 2.6 5.2 0.00 0.57 0.40 49 1013.9
20260507144304 74 321 2.6 5.2 0.00 0.57 0.40 49 1013.7
20260507144225 75 320 2.6 6.1 0.00 0.57 0.40 48 1013.7
20260507144105 75 325 2.6 6.1 0.00 0.57 0.40 47 1013.7
20260507144004 75 328 2.6 6.1 0.00 0.57 0.40 46 1013.9
20260507143903 75 331 2.6 6.1 0.00 0.57 0.40 49 1013.7
20260507143804 75 328 2.6 6.1 0.00 0.57 0.40 48 1013.6
20260507143725 75 327 2.6 6.1 0.00 0.57 0.40 47 1013.6
20260507143604 75 327 2.6 6.1 0.00 0.57 0.40 47 1013.9
20260507143504 75 325 2.6 6.1 0.00 0.57 0.40 47 1013.8
20260507143405 75 327 2.6 6.1 0.00 0.57 0.40 47 1013.8
20260507143304 75 328 2.6 6.1 0.00 0.57 0.40 47 1013.6
20260507143204 75 330 2.6 6.1 0.00 0.57 0.40 47 1013.6
20260507143105 75 333 2.6 6.1 0.00 0.57 0.40 47 1013.8
20260507143004 75 337 2.6 6.1 0.00 0.57 0.40 45 1013.9
20260507142904 75 341 2.6 6.1 0.00 0.57 0.40 45 1013.8
20260507142805 75 344 2.6 6.1 0.00 0.57 0.40 46 1013.8
20260507142704 75 346 2.6 6.1 0.00 0.57 0.40 46 1013.8
20260507142604 75 348 2.6 6.1 0.00 0.57 0.40 46 1013.8
20260507142525 75 347 2.6 6.1 0.00 0.57 0.40 46 1013.8
20260507142404 75 349 2.6 6.1 0.00 0.57 0.40 46 1013.8
20260507142306 75 355 1.7 4.3 0.00 0.57 0.40 46 1013.8
20260507142204 75 355 1.7 4.3 0.00 0.57 0.40 47 1013.7
20260507142125 75 351 2.6 4.3 0.00 0.57 0.40 47 1013.7
20260507142003 75 350 1.7 4.3 0.00 0.57 0.40 47 1013.9
20260507141903 75 348 1.7 4.3 0.00 0.57 0.40 46 1013.8
20260507141803 75 352 1.7 4.3 0.00 0.57 0.40 46 1014.0
20260507141703 75 355 1.7 4.3 0.00 0.57 0.40 46 1013.8
20260507141604 75 352 1.7 4.3 0.00 0.57 0.40 46 1013.8
20260507141504 75 351 1.7 4.3 0.00 0.57 0.40 46 1013.7
20260507141404 75 345 1.7 4.3 0.00 0.57 0.40 46 1013.9
20260507141325 75 336 1.7 4.3 0.00 0.57 0.40 46 1013.9
20260507141225 75 325 1.7 6.1 0.00 0.57 0.40 46 1013.9
20260507141104 75 321 2.6 6.1 0.00 0.57 0.40 48 1013.9
20260507141004 75 320 2.6 7.0 0.00 0.57 0.40 48 1013.9
20260507140904 75 318 2.6 7.0 0.00 0.57 0.40 47 1014.1
20260507140803 75 320 2.6 7.0 0.00 0.57 0.40 46 1014.0
20260507140703 75 317 2.6 7.0 0.00 0.57 0.40 45 1014.1
20260507140603 75 322 2.6 7.0 0.00 0.57 0.40 45 1014.0
20260507140504 75 324 2.6 7.0 0.00 0.57 0.40 46 1014.2
20260507140406 75 327 2.6 7.0 0.00 0.57 0.40 45 1014.2
20260507140304 75 333 2.6 7.0 0.00 0.57 0.40 45 1014.0
20260507140204 75 332 2.6 7.0 0.00 0.57 0.40 45 1014.3
20260507140104 75 335 1.7 7.0 0.00 0.57 0.40 45 1014.3
20260507140004 75 342 1.7 5.2 0.00 0.57 0.40 47 1014.2
20260507135904 75 354 1.7 5.2 0.00 0.57 0.40 47 1014.4
20260507135804 75 360 1.7 5.2 0.00 0.57 0.40 47 1014.0
20260507135704 75 2 1.7 4.3 0.00 0.57 0.40 47 1014.3
20260507135604 75 353 1.7 3.5 0.00 0.57 0.40 46 1014.5
20260507135504 75 9 1.7 3.5 0.00 0.57 0.40 48 1014.3
20260507135404 75 23 1.7 3.5 0.00 0.57 0.40 48 1014.4
20260507135306 75 24 1.7 3.5 0.00 0.57 0.40 46 1014.4
20260507135204 75 31 1.7 3.5 0.00 0.57 0.40 47 1014.5
20260507135103 75 24 1.7 3.5 0.00 0.57 0.40 47 1014.4
20260507135004 75 26 1.7 3.5 0.00 0.57 0.40 46 1014.4
20260507134904 75 9 1.7 3.5 0.00 0.57 0.40 46 1014.4
20260507134826 75 2 1.7 3.5 0.00 0.57 0.40 46 1014.4
20260507134704 75 11 1.7 3.5 0.00 0.57 0.40 44 1014.4
20260507134604 75 4 1.7 3.5 0.00 0.57 0.40 46 1014.6
20260507134504 75 1 1.7 3.5 0.00 0.57 0.40 46 1014.5
20260507134404 75 348 1.7 3.5 0.00 0.57 0.40 46 1014.6
20260507134325 75 337 1.7 3.5 0.00 0.57 0.40 44 1014.6
20260507134204 75 328 1.7 5.2 0.00 0.57 0.40 48 1014.8
20260507134104 74 317 1.7 5.2 0.00 0.57 0.40 47 1014.4
20260507134004 74 305 1.7 5.2 0.00 0.57 0.40 47 1014.5
20260507133904 74 305 1.7 6.1 0.00 0.57 0.40 48 1014.5
20260507133804 74 303 2.6 6.1 0.00 0.57 0.40 48 1014.5
20260507133704 74 306 2.6 6.1 0.00 0.57 0.40 45 1014.7
20260507133604 74 305 2.6 6.1 0.00 0.57 0.40 47 1014.7
20260507133504 75 303 2.6 6.1 0.00 0.57 0.40 45 1014.7
20260507133404 75 306 2.6 6.1 0.00 0.57 0.40 48 1014.7
20260507133304 75 312 2.6 6.1 0.00 0.57 0.40 47 1014.6
20260507133204 75 315 2.6 6.1 0.00 0.57 0.40 48 1014.8
20260507133106 75 318 2.6 6.1 0.00 0.57 0.40 47 1014.7
20260507133005 75 328 2.6 6.1 0.00 0.57 0.40 45 1014.6
20260507132904 75 332 2.6 6.1 0.00 0.57 0.40 47 1014.6
20260507132825 75 336 2.6 6.1 0.00 0.57 0.40 47 1014.6
20260507132704 75 338 1.7 6.1 0.00 0.57 0.40 48 1014.6
20260507132625 75 341 2.6 6.1 0.00 0.57 0.40 48 1014.6
20260507132525 75 344 1.7 6.1 0.00 0.57 0.40 48 1014.8
20260507132404 75 349 1.7 5.2 0.00 0.57 0.40 47 1014.9
20260507132307 75 358 1.7 6.1 0.00 0.57 0.40 47 1014.8
20260507132204 75 7 1.7 6.1 0.00 0.57 0.40 48 1015.0
20260507132104 75 15 1.7 6.1 0.00 0.57 0.40 48 1014.9
20260507132005 75 16 1.7 6.1 0.00 0.57 0.40 48 1015.0
20260507131906 75 22 1.7 6.1 0.00 0.57 0.40 49 1015.0
20260507131804 75 26 1.7 6.1 0.00 0.57 0.40 49 1015.0
20260507131704 75 23 1.7 6.1 0.00 0.57 0.40 48 1014.8
20260507131626 75 19 1.7 6.1 0.00 0.57 0.40 48 1014.8
20260507131504 75 16 1.7 6.1 0.00 0.57 0.40 48 1014.9
20260507131404 75 23 1.7 6.1 0.00 0.57 0.40 49 1014.9
20260507131303 74 23 1.7 5.2 0.00 0.57 0.40 48 1015.1
20260507131205 74 22 1.7 5.2 0.00 0.57 0.40 47 1015.0
20260507131103 74 25 1.7 5.2 0.00 0.57 0.40 49 1015.0
20260507131004 74 24 1.7 5.2 0.00 0.57 0.40 49 1015.0
20260507130904 74 21 1.7 5.2 0.00 0.57 0.40 48 1014.9
20260507130803 74 17 1.7 5.2 0.00 0.57 0.40 50 1015.0
20260507130705 74 20 1.7 5.2 0.00 0.57 0.40 49 1015.0
20260507130604 74 15 1.7 5.2 0.00 0.57 0.40 49 1014.9
20260507130525 74 16 1.7 5.2 0.00 0.57 0.40 49 1014.9
20260507130405 74 359 2.6 6.1 0.00 0.57 0.40 50 1014.8
20260507130304 74 357 2.6 6.1 0.00 0.57 0.40 50 1014.9
20260507130204 74 351 2.6 6.1 0.00 0.57 0.40 49 1014.9
20260507130104 74 344 2.6 6.1 0.00 0.57 0.40 49 1014.7
20260507130004 74 349 2.6 6.1 0.00 0.57 0.40 50 1015.1
20260507125904 74 343 2.6 6.1 0.00 0.57 0.40 50 1014.9
20260507125804 74 334 2.6 6.1 0.00 0.57 0.40 50 1015.2
20260507125704 74 320 1.7 6.1 0.00 0.57 0.40 50 1015.1
20260507125604 74 307 1.7 6.1 0.00 0.57 0.40 49 1015.0
20260507125504 74 295 1.7 6.1 0.00 0.57 0.40 50 1015.0
20260507125404 74 286 1.7 5.2 0.00 0.57 0.40 50 1015.2
20260507125307 74 280 1.7 5.2 0.00 0.57 0.40 50 1015.1
20260507125204 74 272 1.7 4.3 0.00 0.57 0.40 51 1015.1
20260507125125 74 275 1.7 4.3 0.00 0.57 0.40 52 1015.1
20260507125025 73 273 1.7 4.3 0.00 0.57 0.40 53 1015.1
20260507124925 73 271 1.7 4.3 0.00 0.57 0.40 52 1015.0
20260507124804 73 281 1.7 5.2 0.00 0.57 0.40 51 1015.2
20260507124704 73 260 1.7 5.2 0.00 0.57 0.40 50 1015.1
20260507124604 74 126 1.7 5.2 0.00 0.57 0.40 51 1015.0
20260507124525 74 112 2.6 5.2 0.00 0.57 0.40 51 1015.0
20260507124427 74 94 1.7 5.2 0.00 0.57 0.40 52 1015.2
20260507124325 74 96 1.7 5.2 0.00 0.57 0.40 52 1015.2
20260507124205 74 97 2.6 5.2 0.00 0.57 0.40 52 1015.1
20260507124104 74 93 2.6 5.2 0.00 0.57 0.40 56 1015.2
20260507124004 74 91 2.6 5.2 0.00 0.57 0.40 55 1015.2
20260507123925 74 86 2.6 5.2 0.00 0.57 0.40 56 1015.2
20260507123825 74 84 2.6 5.2 0.00 0.57 0.40 54 1015.1
20260507123703 74 81 1.7 5.2 0.00 0.57 0.40 55 1015.2
20260507123604 74 75 1.7 5.2 0.00 0.57 0.40 58 1015.2
20260507123504 73 68 1.7 5.2 0.00 0.57 0.40 57 1015.4
20260507123404 73 66 1.7 5.2 0.00 0.57 0.40 58 1015.0
20260507123304 73 64 1.7 5.2 0.00 0.57 0.40 58 1015.4
20260507123203 73 59 1.7 5.2 0.00 0.57 0.40 58 1015.3
20260507123125 73 56 1.7 4.3 0.00 0.57 0.40 58 1015.3
20260507123026 73 52 1.7 4.3 0.00 0.57 0.40 58 1015.4
20260507122903 72 51 1.7 4.3 0.00 0.57 0.40 59 1015.3
20260507122804 72 52 1.7 4.3 0.00 0.57 0.40 59 1015.4
20260507122705 72 42 1.7 4.3 0.00 0.57 0.40 59 1015.4
20260507122624 72 39 1.7 4.3 0.00 0.57 0.40 58 1015.4
20260507122504 72 33 1.7 6.1 0.00 0.57 0.40 61 1015.2
20260507122404 72 29 1.7 6.1 0.00 0.57 0.40 60 1015.2
20260507122325 72 28 2.6 6.1 0.00 0.57 0.40 60 1015.2
20260507122204 72 22 1.7 6.1 0.00 0.57 0.40 61 1015.1
20260507122104 72 19 1.7 6.1 0.00 0.57 0.40 61 1015.2
20260507122004 72 11 1.7 6.1 0.00 0.57 0.40 60 1015.3
20260507121904 71 10 1.7 6.1 0.00 0.57 0.40 62 1015.2
20260507121825 71 5 1.7 6.1 0.00 0.57 0.40 61 1015.2
20260507121704 71 1 1.7 6.1 0.00 0.57 0.40 62 1015.3
20260507121603 71 358 1.7 6.1 0.00 0.57 0.40 62 1015.3
20260507121504 71 360 1.7 6.1 0.00 0.57 0.40 62 1015.4
20260507121404 70 4 1.7 4.3 0.00 0.57 0.40 63 1015.3
20260507121304 70 4 1.7 4.3 0.00 0.57 0.40 63 1015.4
20260507121205 70 360 1.7 4.3 0.00 0.57 0.40 62 1015.1
20260507121104 70 360 1.7 4.3 0.00 0.57 0.40 62 1015.4
20260507121004 70 5 1.7 4.3 0.00 0.57 0.40 61 1015.5
20260507120903 70 11 1.7 4.3 0.00 0.57 0.40 61 1015.4
20260507120804 70 16 1.7 4.3 0.00 0.57 0.40 60 1015.3
20260507120726 70 19 1.7 4.3 0.00 0.57 0.40 61 1015.3
20260507120604 70 24 1.7 4.3 0.00 0.57 0.40 62 1015.3
20260507120504 70 21 1.7 3.5 0.00 0.57 0.40 63 1015.2
20260507120403 70 19 1.7 5.2 0.00 0.57 0.40 62 1015.3
20260507120303 70 22 1.7 5.2 0.00 0.57 0.40 62 1015.3
20260507120203 70 29 1.7 5.2 0.00 0.57 0.40 62 1015.5
20260507120125 70 33 1.7 5.2 0.00 0.57 0.40 62 1015.5
20260507120024 70 35 1.7 5.2 0.00 0.57 0.40 60 1015.1
20260507115904 70 39 1.7 5.2 0.00 0.57 0.40 61 1015.3
20260507115804 70 41 1.7 5.2 0.00 0.57 0.40 61 1015.3
20260507115703 71 42 1.7 5.2 0.00 0.57 0.40 61 1015.3
20260507115604 71 49 1.7 5.2 0.00 0.57 0.40 61 1015.3
20260507115504 71 56 1.7 5.2 0.00 0.57 0.40 62 1015.3
20260507115404 71 61 1.7 5.2 0.00 0.57 0.40 62 1015.4
20260507115326 71 64 1.7 5.2 0.00 0.57 0.40 62 1015.4
20260507115204 71 77 1.7 5.2 0.00 0.57 0.40 62 1015.5
20260507115103 71 77 1.7 5.2 0.00 0.57 0.40 61 1015.3
20260507115025 71 79 1.7 4.3 0.00 0.57 0.40 61 1015.3
20260507114905 71 81 1.7 4.3 0.00 0.57 0.40 63 1015.4
20260507114805 71 80 1.7 4.3 0.00 0.57 0.40 62 1015.4
20260507114704 71 82 1.7 4.3 0.00 0.57 0.40 62 1015.4
20260507114604 71 78 1.7 4.3 0.00 0.57 0.40 62 1015.4
20260507114504 71 81 1.7 4.3 0.00 0.57 0.40 63 1015.4
20260507114425 71 87 1.7 4.3 0.00 0.57 0.40 64 1015.4
20260507114304 71 88 1.7 4.3 0.00 0.57 0.40 64 1015.6
20260507114204 71 91 1.7 3.5 0.00 0.57 0.40 64 1015.4
20260507114104 71 101 1.7 3.5 0.00 0.57 0.40 64 1015.5
20260507114005 71 103 1.7 3.5 0.00 0.57 0.40 63 1015.5
20260507113905 71 96 1.7 3.5 0.00 0.57 0.40 62 1015.5
20260507113825 71 96 1.7 3.5 0.00 0.57 0.40 62 1015.5
20260507113704 71 85 1.7 4.3 0.00 0.57 0.40 61 1015.2
20260507113604 71 84 1.7 4.3 0.00 0.57 0.40 62 1015.5
20260507113504 71 79 1.7 4.3 0.00 0.57 0.40 63 1015.5
20260507113404 71 72 1.7 4.3 0.00 0.57 0.40 63 1015.4
20260507113304 71 68 1.7 4.3 0.00 0.57 0.40 62 1015.5
20260507113204 71 62 1.7 4.3 0.00 0.57 0.40 63 1015.4
20260507113104 71 61 1.7 4.3 0.00 0.57 0.40 63 1015.6
20260507113004 71 62 1.7 4.3 0.00 0.57 0.40 63 1015.6
20260507112904 71 61 1.7 4.3 0.00 0.57 0.40 64 1015.6
20260507112804 71 53 1.7 4.3 0.00 0.57 0.40 65 1015.4
20260507112725 71 48 1.7 4.3 0.00 0.57 0.40 65 1015.4
20260507112604 70 36 1.7 4.3 0.00 0.57 0.40 66 1015.7
20260507112505 70 36 1.7 4.3 0.00 0.57 0.40 66 1015.7
20260507112425 70 36 1.7 4.3 0.00 0.57 0.40 65 1015.7
20260507112306 70 35 1.7 4.3 0.00 0.57 0.40 66 1015.7
20260507112204 70 31 1.7 4.3 0.00 0.57 0.40 66 1015.5
20260507112104 70 32 1.7 4.3 0.00 0.57 0.40 65 1015.5
20260507112004 70 23 1.7 4.3 0.00 0.57 0.40 67 1015.7
20260507111905 70 26 1.7 4.3 0.00 0.57 0.40 66 1015.5
20260507111804 70 34 1.7 4.3 0.00 0.57 0.40 66 1015.5
20260507111704 70 50 1.7 4.3 0.00 0.57 0.40 66 1015.7
20260507111604 70 59 1.7 4.3 0.00 0.57 0.40 66 1015.5
20260507111504 70 57 1.7 4.3 0.00 0.57 0.40 66 1015.6
20260507111403 70 50 1.7 4.3 0.00 0.57 0.40 66 1015.5
20260507111304 70 47 1.7 4.3 0.00 0.57 0.40 66 1015.7
20260507111224 70 53 1.7 4.3 0.00 0.57 0.40 67 1015.7
20260507111126 70 56 1.7 4.3 0.00 0.57 0.40 66 1015.4
20260507111005 70 56 1.7 4.3 0.00 0.57 0.40 66 1015.6
20260507110903 70 56 1.7 4.3 0.00 0.57 0.40 66 1015.6
20260507110805 70 58 1.7 4.3 0.00 0.57 0.40 67 1015.7
20260507110725 70 49 1.7 4.3 0.00 0.57 0.40 66 1015.7
20260507110603 70 40 1.7 4.3 0.00 0.57 0.40 67 1015.5
20260507110503 70 47 1.7 3.5 0.00 0.57 0.40 68 1015.5
20260507110404 70 52 1.7 4.3 0.00 0.57 0.40 69 1015.6
20260507110304 70 59 1.7 4.3 0.00 0.57 0.40 69 1015.5
20260507110226 70 60 1.7 4.3 0.00 0.57 0.40 69 1015.5
20260507110104 69 58 1.7 4.3 0.00 0.57 0.40 69 1015.6
20260507110026 69 60 1.7 4.3 0.00 0.57 0.40 68 1015.6
20260507105904 69 65 1.7 4.3 0.00 0.57 0.40 68 1015.6
20260507105804 69 62 1.7 4.3 0.00 0.57 0.40 68 1015.5
20260507105704 69 70 1.7 4.3 0.00 0.57 0.40 69 1015.5
20260507105604 69 71 1.7 4.3 0.00 0.57 0.40 69 1015.6
20260507105504 69 67 1.7 4.3 0.00 0.57 0.40 69 1015.6
20260507105404 69 73 1.7 4.3 0.00 0.57 0.40 69 1015.6
20260507105306 69 69 1.7 4.3 0.00 0.57 0.40 67 1015.6
20260507105204 69 61 1.7 4.3 0.00 0.57 0.40 67 1015.5
20260507105104 69 70 1.7 4.3 0.00 0.57 0.40 67 1015.5
20260507105025 69 67 1.7 4.3 0.00 0.57 0.40 69 1015.5
20260507104904 69 53 1.7 4.3 0.00 0.57 0.40 69 1015.5
20260507104804 69 44 1.7 4.3 0.00 0.57 0.40 70 1015.5
20260507104704 69 26 1.7 4.3 0.00 0.57 0.40 71 1015.6
20260507104605 68 7 1.7 4.3 0.00 0.57 0.40 70 1015.6
20260507104504 68 351 1.7 4.3 0.00 0.57 0.40 70 1015.5
20260507104404 68 337 1.7 4.3 0.00 0.57 0.40 69 1015.6
20260507104325 68 330 1.7 4.3 0.00 0.57 0.40 69 1015.6
20260507104204 68 323 1.7 4.3 0.00 0.57 0.40 68 1015.6
20260507104104 68 325 1.7 4.3 0.00 0.57 0.40 68 1015.5
20260507104025 68 327 1.7 4.3 0.00 0.57 0.40 68 1015.5
20260507103903 68 327 1.7 5.2 0.00 0.57 0.40 69 1015.7
20260507103804 68 325 2.6 6.1 0.00 0.57 0.40 69 1015.7
20260507103704 68 325 2.6 6.1 0.00 0.57 0.40 68 1015.5
20260507103604 68 327 2.6 6.1 0.00 0.57 0.40 68 1015.7
20260507103504 68 329 2.6 6.1 0.00 0.57 0.40 67 1015.6
20260507103403 68 330 2.6 6.1 0.00 0.57 0.40 67 1015.7
20260507103326 68 334 2.6 6.1 0.00 0.57 0.40 67 1015.7
20260507103205 68 335 2.6 6.1 0.00 0.57 0.40 65 1015.7
20260507103104 68 335 3.5 6.1 0.00 0.57 0.40 65 1015.7
20260507103026 68 334 3.5 6.1 0.00 0.57 0.40 65 1015.7
20260507102903 68 337 2.6 6.1 0.00 0.57 0.40 65 1015.7
20260507102804 68 339 2.6 6.1 0.00 0.57 0.40 65 1015.8
20260507102725 68 343 2.6 6.1 0.00 0.57 0.40 67 1015.8
20260507102603 68 350 1.7 6.1 0.00 0.57 0.40 67 1015.9
20260507102504 68 357 1.7 6.1 0.00 0.57 0.40 67 1015.9
20260507102404 68 10 1.7 6.1 0.00 0.57 0.40 66 1015.9
20260507102306 68 7 1.7 6.1 0.00 0.57 0.40 69 1015.8
20260507102204 68 24 1.7 6.1 0.00 0.57 0.40 68 1015.8
20260507102104 68 45 1.7 5.2 0.00 0.57 0.40 67 1015.8
20260507102006 68 50 1.7 5.2 0.00 0.57 0.40 69 1015.9
20260507101904 68 58 1.7 5.2 0.00 0.57 0.40 69 1015.8
20260507101804 67 60 1.7 5.2 0.00 0.57 0.40 69 1015.9
20260507101725 68 59 1.7 5.2 0.00 0.57 0.40 69 1015.9
20260507101605 67 49 1.7 5.2 0.00 0.57 0.40 68 1016.0
20260507101504 67 39 1.7 5.2 0.00 0.57 0.40 70 1016.1
20260507101425 67 30 1.7 5.2 0.00 0.57 0.40 71 1016.1
20260507101325 67 28 1.7 5.2 0.00 0.57 0.40 69 1016.0
20260507101204 67 20 2.6 5.2 0.00 0.57 0.40 72 1016.0
20260507101104 67 10 1.7 5.2 0.00 0.57 0.40 72 1015.7
20260507101025 67 5 1.7 5.2 0.00 0.57 0.40 72 1015.7
20260507100904 67 351 1.7 3.5 0.00 0.57 0.40 71 1015.9
20260507100804 67 344 1.7 3.5 0.00 0.57 0.40 71 1016.0
20260507100704 66 340 1.7 3.5 0.00 0.57 0.40 71 1015.9
20260507100625 66 344 1.7 3.5 0.00 0.57 0.40 72 1015.9
20260507100504 66 351 1.7 4.3 0.00 0.57 0.40 71 1016.0
20260507100404 66 351 1.7 5.2 0.00 0.57 0.40 70 1016.1
20260507100304 66 347 1.7 5.2 0.00 0.57 0.40 71 1016.1
20260507100224 66 351 1.7 5.2 0.00 0.57 0.40 71 1016.1
20260507100103 66 358 1.7 5.2 0.00 0.57 0.40 71 1016.0
20260507100004 66 3 1.7 5.2 0.00 0.57 0.40 71 1016.1
20260507095904 66 13 1.7 5.2 0.00 0.57 0.40 72 1016.2
20260507095804 66 24 1.7 5.2 0.00 0.57 0.40 72 1016.1
20260507095704 66 32 1.7 5.2 0.00 0.57 0.40 72 1016.1
20260507095604 66 36 1.7 5.2 0.00 0.57 0.40 72 1016.0
20260507095504 66 28 1.7 5.2 0.00 0.57 0.40 72 1016.2
20260507095405 66 29 1.7 4.3 0.00 0.57 0.40 72 1015.9
20260507095305 66 26 1.7 4.3 0.00 0.57 0.40 73 1016.1
20260507095205 66 13 1.7 4.3 0.00 0.57 0.40 73 1016.2
20260507095103 66 359 1.7 5.2 0.00 0.57 0.40 72 1016.1
20260507095004 66 350 2.6 5.2 0.00 0.57 0.40 72 1016.2
20260507094904 66 342 2.6 5.2 0.00 0.57 0.40 71 1016.1
20260507094803 66 337 2.6 5.2 0.00 0.57 0.40 71 1016.0
20260507094703 66 342 2.6 5.2 0.00 0.57 0.40 72 1016.2
20260507094604 66 339 2.6 5.2 0.00 0.57 0.40 72 1016.2
20260507094504 66 341 1.7 5.2 0.00 0.57 0.40 71 1016.2
20260507094404 66 343 1.7 5.2 0.00 0.57 0.40 73 1016.1
20260507094304 66 342 1.7 5.2 0.00 0.57 0.40 71 1016.3
20260507094225 66 341 1.7 5.2 0.00 0.57 0.40 73 1016.3
20260507094104 66 345 1.7 5.2 0.00 0.57 0.40 74 1016.2
20260507094004 66 345 1.7 3.5 0.00 0.57 0.40 73 1016.2
20260507093904 66 352 1.7 3.5 0.00 0.57 0.40 73 1016.3
20260507093803 66 355 1.7 3.5 0.00 0.57 0.40 73 1016.3
20260507093725 66 351 1.7 4.3 0.00 0.57 0.40 73 1016.3
20260507093605 66 352 1.7 4.3 0.00 0.57 0.40 72 1016.4
20260507093525 66 353 1.7 5.2 0.00 0.57 0.40 73 1016.4
20260507093404 66 352 1.7 5.2 0.00 0.57 0.40 72 1016.1
20260507093304 66 357 2.6 5.2 0.00 0.57 0.40 71 1016.3
20260507093203 66 3 2.6 5.2 0.00 0.57 0.40 70 1016.0
20260507093103 66 360 2.6 5.2 0.00 0.57 0.40 72 1016.2
20260507093003 66 1 2.6 5.2 0.00 0.57 0.40 71 1016.2
20260507092904 66 4 2.6 5.2 0.00 0.57 0.40 72 1016.1
20260507092804 66 5 2.6 5.2 0.00 0.57 0.40 72 1016.1
20260507092725 66 5 2.6 5.2 0.00 0.57 0.40 72 1016.1
20260507092604 66 12 1.7 5.2 0.00 0.57 0.40 72 1015.9
20260507092504 66 19 1.7 5.2 0.00 0.57 0.40 71 1016.1
20260507092404 66 24 1.7 5.2 0.00 0.57 0.40 71 1016.3
20260507092306 66 23 1.7 4.3 0.00 0.57 0.40 74 1015.9
20260507092204 66 19 1.7 4.3 0.00 0.57 0.40 73 1015.9
20260507092126 66 29 1.7 4.3 0.00 0.57 0.40 74 1015.9
20260507092004 66 52 1.7 6.1 0.00 0.57 0.40 75 1016.3
20260507091903 65 59 1.7 6.1 0.00 0.57 0.40 75 1015.9
20260507091803 65 75 1.7 6.1 0.00 0.57 0.40 74 1016.1
20260507091705 65 82 1.7 6.1 0.00 0.57 0.40 73 1016.3
20260507091604 66 83 1.7 6.1 0.00 0.57 0.40 74 1016.2
20260507091503 66 89 1.7 6.1 0.00 0.57 0.40 74 1016.1
20260507091404 66 88 1.7 6.1 0.00 0.57 0.40 74 1016.0
20260507091303 66 88 2.6 6.1 0.00 0.57 0.40 74 1016.0
20260507091204 66 86 2.6 6.1 0.00 0.57 0.40 75 1016.0
20260507091125 66 85 2.6 6.1 0.00 0.57 0.40 76 1016.0
20260507091004 66 77 1.7 6.1 0.00 0.57 0.40 77 1016.1
20260507090924 65 72 1.7 5.2 0.00 0.57 0.40 77 1016.1
20260507090803 65 66 1.7 5.2 0.00 0.57 0.40 77 1016.2
20260507090703 65 59 1.7 5.2 0.00 0.57 0.40 77 1016.1
20260507090624 65 53 1.7 5.2 0.00 0.57 0.40 77 1016.1
20260507090503 65 40 1.7 5.2 0.00 0.57 0.40 77 1016.2
20260507090406 65 30 1.7 4.3 0.00 0.57 0.40 76 1016.2
20260507090303 65 21 1.7 4.3 0.00 0.57 0.40 76 1016.1
20260507090204 65 24 1.7 5.2 0.00 0.57 0.40 76 1016.3
20260507090103 64 29 1.7 5.2 0.00 0.57 0.40 77 1016.2
20260507090005 64 33 1.7 5.2 0.00 0.57 0.40 76 1016.0
20260507085924 64 36 1.7 5.2 0.00 0.57 0.40 77 1016.0
20260507085804 65 33 1.7 5.2 0.00 0.57 0.40 76 1016.0
20260507085704 65 35 1.7 5.2 0.00 0.57 0.40 75 1016.2
20260507085604 65 41 1.7 5.2 0.00 0.57 0.40 76 1016.2
20260507085504 65 47 1.7 5.2 0.00 0.57 0.40 76 1016.1
20260507085403 65 48 1.7 5.2 0.00 0.57 0.40 78 1016.1
20260507085306 65 49 1.7 5.2 0.00 0.57 0.40 77 1016.0
20260507085204 65 43 1.7 4.3 0.00 0.57 0.40 77 1016.1
20260507085104 65 34 1.7 4.3 0.00 0.57 0.40 77 1015.9
20260507085004 65 23 1.7 4.3 0.00 0.57 0.40 77 1016.2
20260507084904 65 19 1.7 4.3 0.00 0.57 0.40 78 1016.0
20260507084824 65 12 1.7 4.3 0.00 0.57 0.40 78 1016.0
20260507084704 65 19 1.7 4.3 0.00 0.57 0.40 79 1016.0
20260507084603 65 21 1.7 4.3 0.00 0.57 0.40 78 1016.2
20260507084505 65 19 1.7 4.3 0.00 0.57 0.40 79 1016.3
20260507084403 65 12 1.7 5.2 0.00 0.57 0.40 79 1016.2
20260507084304 64 11 1.7 5.2 0.00 0.57 0.40 80 1016.2
20260507084203 64 16 1.7 5.2 0.00 0.57 0.40 78 1016.1
20260507084124 64 17 1.7 5.2 0.00 0.57 0.40 78 1016.1
20260507084024 64 25 1.7 5.2 0.00 0.57 0.40 80 1016.1
20260507083924 64 30 1.7 5.2 0.00 0.57 0.40 80 1016.1
20260507083824 64 33 1.7 5.2 0.00 0.57 0.40 80 1016.3
20260507083724 64 29 1.7 5.2 0.00 0.57 0.40 80 1016.0
20260507083625 64 25 1.7 5.2 0.00 0.57 0.40 80 1016.1
20260507083503 64 25 1.7 5.2 0.00 0.57 0.40 79 1016.2
20260507083404 64 34 1.7 5.2 0.00 0.57 0.40 80 1016.1
20260507083304 64 36 1.7 5.2 0.00 0.57 0.40 80 1016.1
20260507083203 64 31 1.7 5.2 0.00 0.57 0.40 81 1016.0
20260507083105 64 26 1.7 5.2 0.00 0.57 0.40 81 1016.1
20260507083004 63 17 1.7 4.3 0.00 0.57 0.40 80 1016.2
20260507082904 63 9 1.7 4.3 0.00 0.57 0.40 80 1016.4
20260507082804 63 3 1.7 4.3 0.00 0.57 0.40 81 1016.2
20260507082704 63 1 1.7 4.3 0.00 0.57 0.40 81 1016.4
20260507082603 63 358 1.7 4.3 0.00 0.57 0.40 80 1016.3
20260507082503 63 360 1.7 4.3 0.00 0.57 0.40 79 1016.3
20260507082405 63 1 1.7 4.3 0.00 0.57 0.40 80 1016.3
20260507082306 63 358 1.7 3.5 0.00 0.57 0.40 79 1016.4
20260507082204 63 357 1.7 3.5 0.00 0.57 0.40 80 1016.3
20260507082125 63 2 0.9 3.5 0.00 0.57 0.40 80 1016.3
20260507082004 63 18 0.9 3.5 0.00 0.57 0.40 81 1016.4
20260507081904 63 32 0.9 3.5 0.00 0.57 0.40 81 1016.3
20260507081804 63 45 0.9 3.5 0.00 0.57 0.40 81 1016.4
20260507081703 63 52 0.9 3.5 0.00 0.57 0.40 82 1016.5
20260507081604 63 52 0.9 3.5 0.00 0.57 0.40 83 1016.4
20260507081503 62 60 0.9 3.5 0.00 0.57 0.40 83 1016.4
20260507081405 62 68 0.9 3.5 0.00 0.57 0.40 84 1016.7
20260507081303 62 80 0.9 3.5 0.00 0.57 0.40 84 1016.4
20260507081204 62 79 0.9 3.5 0.00 0.57 0.40 83 1016.5
20260507081125 62 82 0.9 3.5 0.00 0.57 0.40 83 1016.5
20260507081003 62 83 0.9 3.5 0.00 0.57 0.40 83 1016.4
20260507080903 62 80 0.9 3.5 0.00 0.57 0.40 83 1016.5
20260507080804 62 74 0.9 3.5 0.00 0.57 0.40 83 1016.4
20260507080704 62 65 1.7 3.5 0.00 0.57 0.40 82 1016.4
20260507080625 62 61 1.7 3.5 0.00 0.57 0.40 82 1016.4
20260507080503 62 45 1.7 3.5 0.00 0.57 0.40 83 1016.5
20260507080403 62 34 1.7 3.5 0.00 0.57 0.40 82 1016.4
20260507080304 62 23 1.7 3.5 0.00 0.57 0.40 82 1016.4
20260507080224 62 13 1.7 3.5 0.00 0.57 0.40 82 1016.4
20260507080104 62 359 1.7 3.5 0.00 0.57 0.40 81 1016.4
20260507080004 62 353 1.7 3.5 0.00 0.57 0.40 83 1016.3
20260507075904 62 350 1.7 3.5 0.00 0.57 0.40 83 1016.5
20260507075804 62 354 1.7 3.5 0.00 0.57 0.40 82 1016.4
20260507075703 62 3 1.7 5.2 0.00 0.57 0.40 82 1016.5
20260507075605 62 13 1.7 5.2 0.00 0.57 0.40 82 1016.4
20260507075503 62 22 1.7 5.2 0.00 0.57 0.40 82 1016.4
20260507075404 62 28 1.7 5.2 0.00 0.57 0.40 81 1016.3
20260507075306 62 29 1.7 5.2 0.00 0.57 0.40 81 1016.5
20260507075204 63 32 1.7 5.2 0.00 0.57 0.40 81 1016.3
20260507075104 63 33 1.7 5.2 0.00 0.57 0.40 80 1016.2
20260507075005 63 35 1.7 5.2 0.00 0.57 0.40 82 1016.2
20260507074903 63 38 1.7 5.2 0.00 0.57 0.40 82 1016.5
20260507074803 63 39 1.7 5.2 0.00 0.57 0.40 83 1016.5
20260507074724 63 38 1.7 5.2 0.00 0.57 0.40 83 1016.5
20260507074604 63 33 0.9 4.3 0.00 0.57 0.40 83 1016.3
20260507074505 63 36 0.9 4.3 0.00 0.57 0.40 83 1016.1
20260507074404 63 45 1.7 3.5 0.00 0.57 0.40 82 1016.3
20260507074303 63 48 1.7 3.5 0.00 0.57 0.40 82 1016.3
20260507074203 63 57 1.7 3.5 0.00 0.57 0.40 82 1016.4
20260507074103 63 63 1.7 3.5 0.00 0.57 0.40 83 1016.3
20260507074004 63 65 1.7 3.5 0.00 0.57 0.40 82 1016.3
20260507073903 63 64 1.7 3.5 0.00 0.57 0.40 84 1016.5
20260507073804 63 63 1.7 3.5 0.00 0.57 0.40 85 1016.3
20260507073704 62 62 1.7 3.5 0.00 0.57 0.40 85 1016.3
20260507073604 62 63 1.7 3.5 0.00 0.57 0.40 84 1016.5
20260507073503 62 59 1.7 3.5 0.00 0.57 0.40 84 1016.3
20260507073403 62 55 1.7 3.5 0.00 0.57 0.40 84 1016.3
20260507073303 62 55 1.7 4.3 0.00 0.57 0.40 85 1016.5
20260507073204 62 55 1.7 4.3 0.00 0.57 0.40 85 1016.2
20260507073103 62 52 1.7 4.3 0.00 0.57 0.40 85 1016.2
20260507073026 62 50 1.7 4.3 0.00 0.57 0.40 85 1016.2
20260507072925 62 52 1.7 4.3 0.00 0.57 0.40 85 1016.3
20260507072804 62 57 1.7 4.3 0.00 0.57 0.40 85 1016.3
20260507072724 62 59 1.7 4.3 0.00 0.57 0.40 85 1016.3
20260507072603 62 55 1.7 4.3 0.00 0.57 0.40 85 1016.3
20260507072504 62 55 1.7 4.3 0.00 0.57 0.40 86 1016.1
20260507072403 62 55 1.7 4.3 0.00 0.57 0.40 86 1016.2
20260507072306 62 58 1.7 4.3 0.00 0.57 0.40 86 1016.2
20260507072204 62 55 1.7 4.3 0.00 0.57 0.40 86 1016.3
20260507072104 62 54 1.7 4.3 0.00 0.57 0.40 87 1016.3
20260507072024 62 53 1.7 4.3 0.00 0.57 0.40 86 1016.3
20260507071903 62 54 1.7 4.3 0.00 0.57 0.40 87 1016.4
20260507071804 61 50 1.7 4.3 0.00 0.57 0.40 87 1016.4
20260507071703 61 50 1.7 4.3 0.00 0.57 0.40 87 1016.3
20260507071625 61 50 1.7 4.3 0.00 0.57 0.40 87 1016.3
20260507071505 61 42 1.7 4.3 0.00 0.57 0.40 87 1016.6
20260507071424 61 35 1.7 4.3 0.00 0.57 0.40 87 1016.6
20260507071303 61 25 1.7 4.3 0.00 0.57 0.40 88 1016.6
20260507071224 61 26 1.7 4.3 0.00 0.57 0.40 88 1016.6
20260507071105 60 24 1.7 4.3 0.00 0.57 0.40 88 1016.4
20260507071003 60 20 1.7 4.3 0.00 0.57 0.40 88 1016.5
20260507070926 60 17 1.7 4.3 0.00 0.57 0.40 87 1016.5
20260507070804 60 14 1.7 4.3 0.00 0.57 0.40 87 1016.5
20260507070703 60 11 1.7 3.5 0.00 0.57 0.40 87 1016.5
20260507070625 60 14 1.7 3.5 0.00 0.57 0.40 87 1016.5
20260507070504 60 27 1.7 4.3 0.00 0.57 0.40 87 1016.5
20260507070403 60 33 1.7 4.3 0.00 0.57 0.40 88 1016.5
20260507070304 60 36 1.7 4.3 0.00 0.57 0.40 88 1016.4
20260507070204 60 35 1.7 4.3 0.00 0.57 0.40 87 1016.4
20260507070104 60 32 1.7 4.3 0.00 0.57 0.40 87 1016.5
20260507070008 60 32 1.7 4.3 0.00 0.57 0.40 90 1016.4
20260507065904 60 31 1.7 4.3 0.00 0.57 0.40 90 1016.4
20260507065804 60 26 1.7 4.3 0.00 0.57 0.40 90 1016.5
20260507065726 60 26 1.7 4.3 0.00 0.57 0.40 91 1016.5
20260507065604 60 26 1.7 3.5 0.00 0.57 0.40 91 1016.5
20260507065504 60 23 1.7 3.5 0.00 0.57 0.40 90 1016.3
20260507065404 60 19 1.7 3.5 0.00 0.57 0.40 90 1016.6
20260507065306 60 17 1.7 3.5 0.00 0.57 0.40 90 1016.4
20260507065204 59 16 1.7 3.5 0.00 0.57 0.40 90 1016.1
20260507065124 59 16 1.7 3.5 0.00 0.57 0.40 90 1016.1
20260507065003 59 21 1.7 3.5 0.00 0.57 0.40 92 1016.3
20260507064903 59 17 1.7 3.5 0.00 0.57 0.40 91 1016.3
20260507064804 59 20 0.9 3.5 0.00 0.57 0.40 93 1016.3
20260507064703 59 18 0.9 3.5 0.00 0.57 0.40 92 1016.2
20260507064603 59 10 0.9 3.5 0.00 0.57 0.40 92 1016.1
20260507064503 59 5 0.9 3.5 0.00 0.57 0.40 91 1016.3
20260507064426 59 3 0.9 3.5 0.00 0.57 0.40 91 1016.3
20260507064325 59 359 0.9 3.5 0.00 0.57 0.40 91 1016.3
20260507064204 59 1 0.9 3.5 0.00 0.57 0.40 92 1016.3
20260507064105 59 5 0.9 3.5 0.00 0.57 0.40 93 1016.2
20260507064003 59 360 0.9 3.5 0.00 0.57 0.40 93 1016.2
20260507063924 59 359 0.9 3.5 0.00 0.57 0.40 93 1016.2
20260507063803 58 6 0.9 3.5 0.00 0.57 0.40 93 1016.4
20260507063704 58 9 0.9 3.5 0.00 0.57 0.40 93 1016.2
20260507063603 58 13 0.9 2.6 0.00 0.57 0.40 93 1016.1
20260507063503 58 23 0.9 3.5 0.00 0.57 0.40 93 1016.0
20260507063404 58 31 1.7 4.3 0.00 0.57 0.40 92 1016.2
20260507063304 58 36 1.7 4.3 0.00 0.57 0.40 92 1016.3
20260507063204 58 40 1.7 4.3 0.00 0.57 0.40 91 1016.2
20260507063104 58 39 1.7 4.3 0.00 0.57 0.40 91 1016.4
20260507063003 58 41 1.7 4.3 0.00 0.57 0.40 93 1016.1
20260507062903 58 38 1.7 4.3 0.00 0.57 0.40 93 1016.2
20260507062803 58 37 1.7 4.3 0.00 0.57 0.40 93 1016.2
20260507062725 58 37 1.7 4.3 0.00 0.57 0.40 94 1016.2
20260507062624 58 36 1.7 4.3 0.00 0.57 0.40 94 1015.9
20260507062503 58 33 1.7 4.3 0.00 0.57 0.40 95 1016.1
20260507062403 58 31 1.7 3.5 0.00 0.57 0.40 95 1016.1
20260507062306 58 30 1.7 3.5 0.00 0.57 0.40 95 1016.0
20260507062204 58 28 1.7 3.5 0.00 0.57 0.40 95 1016.1
20260507062104 58 30 1.7 3.5 0.00 0.57 0.40 95 1016.1
20260507062003 58 27 1.7 3.5 0.00 0.57 0.40 95 1016.0
20260507061904 58 24 1.7 3.5 0.00 0.57 0.40 95 1016.0
20260507061803 58 25 1.7 3.5 0.00 0.57 0.40 95 1016.0
20260507061703 58 25 1.7 3.5 0.00 0.57 0.40 95 1016.0
20260507061603 58 25 1.7 3.5 0.00 0.57 0.40 96 1015.9
20260507061503 58 26 1.7 3.5 0.00 0.57 0.40 96 1016.0
20260507061403 57 25 1.7 3.5 0.00 0.57 0.40 96 1016.0
20260507061304 57 19 1.7 3.5 0.00 0.57 0.40 96 1015.9
20260507061204 57 11 0.9 3.5 0.00 0.57 0.40 95 1016.0
20260507061103 57 5 0.9 3.5 0.00 0.57 0.40 96 1016.3
20260507061003 57 8 0.9 3.5 0.00 0.57 0.40 98 1016.1
20260507060903 57 20 0.9 3.5 0.00 0.57 0.40 98 1016.1
20260507060824 57 24 0.9 3.5 0.00 0.57 0.40 98 1016.1
20260507060703 56 21 0.9 2.6 0.00 0.57 0.40 98 1016.1
20260507060625 56 23 0.9 2.6 0.00 0.57 0.40 98 1016.1
20260507060504 56 14 0.9 2.6 0.00 0.57 0.40 98 1016.0
20260507060403 56 6 0.9 2.6 0.00 0.57 0.40 98 1016.0
20260507060303 56 13 0.9 2.6 0.00 0.57 0.40 98 1016.0
20260507060204 56 15 0.9 2.6 0.00 0.57 0.40 98 1016.1
20260507060103 56 24 0.9 2.6 0.00 0.57 0.40 98 1016.0
20260507060004 56 20 0.9 2.6 0.00 0.57 0.40 98 1015.8
20260507055903 56 11 0.9 2.6 0.00 0.57 0.40 98 1015.9
20260507055824 56 4 0.9 2.6 0.00 0.57 0.40 98 1015.9
20260507055724 56 358 0.9 2.6 0.00 0.57 0.40 98 1015.9
20260507055603 56 353 0.9 2.6 0.00 0.57 0.40 98 1016.0
20260507055504 56 347 0.9 2.6 0.00 0.57 0.40 98 1016.0
20260507055425 56 347 0.9 2.6 0.00 0.57 0.40 98 1016.0
20260507055306 56 345 0.9 2.6 0.00 0.57 0.40 98 1016.0
20260507055203 56 346 0.9 2.6 0.00 0.57 0.40 98 1016.1
20260507055105 56 344 0.9 2.6 0.00 0.57 0.40 98 1016.0
20260507055003 56 345 0.9 2.6 0.00 0.57 0.40 98 1015.9
20260507054903 56 345 0.9 2.6 0.00 0.57 0.40 98 1016.1
20260507054825 56 344 0.9 2.6 0.00 0.57 0.40 98 1016.1
20260507054704 56 339 0.9 2.6 0.00 0.57 0.40 98 1016.1
20260507054624 56 339 0.9 2.6 0.00 0.57 0.40 98 1016.1
20260507054503 56 340 0.9 3.5 0.00 0.57 0.40 98 1015.9
20260507054403 56 339 0.9 3.5 0.00 0.57 0.40 98 1015.9
20260507054304 55 339 0.9 3.5 0.00 0.57 0.40 98 1016.1
20260507054203 55 337 0.9 3.5 0.00 0.57 0.40 98 1015.9
20260507054103 55 336 0.9 3.5 0.00 0.57 0.40 98 1016.0
20260507054003 55 332 0.9 3.5 0.00 0.57 0.40 98 1015.9
20260507053903 55 331 0.9 3.5 0.00 0.57 0.40 98 1016.1
20260507053803 55 336 0.9 3.5 0.00 0.57 0.40 98 1016.0
20260507053704 55 340 0.9 3.5 0.00 0.57 0.40 98 1016.1
20260507053604 55 343 0.9 3.5 0.00 0.57 0.40 98 1016.0
20260507053504 55 347 0.9 2.6 0.00 0.57 0.40 98 1016.1
20260507053404 55 347 0.9 1.7 0.00 0.57 0.40 98 1015.9
20260507053303 55 350 0.9 1.7 0.00 0.57 0.40 98 1015.9
20260507053224 55 352 0.9 1.7 0.00 0.57 0.40 98 1015.9
20260507053105 55 360 0.0 1.7 0.00 0.57 0.40 98 1016.0
20260507053024 55 5 0.0 1.7 0.00 0.57 0.40 98 1016.0
20260507052905 55 18 0.0 1.7 0.00 0.57 0.40 98 1016.0
20260507052804 55 19 0.0 1.7 0.00 0.57 0.40 98 1015.8
20260507052704 55 20 0.0 1.7 0.00 0.57 0.40 98 1015.9
20260507052603 55 19 0.0 1.7 0.00 0.57 0.40 98 1015.9
20260507052504 55 13 0.0 1.7 0.00 0.57 0.40 98 1015.8
20260507052403 55 7 0.0 1.7 0.00 0.57 0.40 98 1015.8
20260507052306 55 358 0.0 1.7 0.00 0.57 0.40 98 1015.9
20260507052226 54 354 0.9 1.7 0.00 0.57 0.40 98 1015.9
20260507052125 54 344 0.9 1.7 0.00 0.57 0.40 98 1015.8
20260507052024 54 333 0.9 1.7 0.00 0.57 0.40 98 1015.9
20260507051903 54 315 0.9 1.7 0.00 0.57 0.40 98 1015.8
20260507051804 54 307 0.9 1.7 0.00 0.57 0.40 98 1015.8
20260507051724 54 303 0.9 1.7 0.00 0.57 0.40 98 1015.8
20260507051603 54 302 0.9 1.7 0.00 0.57 0.40 98 1015.8
20260507051504 54 301 0.9 2.6 0.00 0.57 0.40 98 1015.8
20260507051425 54 302 0.9 2.6 0.00 0.57 0.40 98 1015.8
20260507051304 54 312 0.0 2.6 0.00 0.57 0.40 98 1015.9
20260507051203 54 313 0.9 2.6 0.00 0.57 0.40 98 1015.9
20260507051105 54 323 0.9 2.6 0.00 0.57 0.40 98 1016.0
20260507051003 54 330 0.9 2.6 0.00 0.57 0.40 98 1015.6
20260507050904 54 336 0.9 2.6 0.00 0.57 0.40 98 1015.8
20260507050803 54 342 0.9 2.6 0.00 0.57 0.40 98 1015.8
20260507050704 54 345 0.9 2.6 0.00 0.57 0.40 98 1015.7
20260507050604 54 347 0.9 2.6 0.00 0.57 0.40 98 1015.9
20260507050525 54 349 0.9 2.6 0.00 0.57 0.40 98 1015.9
20260507050403 54 355 0.9 1.7 0.00 0.57 0.40 98 1015.9
20260507050303 54 354 0.9 1.7 0.00 0.57 0.40 98 1015.9
20260507050226 54 359 0.0 1.7 0.00 0.57 0.40 98 1015.9
20260507050104 54 355 0.9 2.6 0.00 0.57 0.40 98 1015.7
20260507050005 54 356 0.9 2.6 0.00 0.57 0.40 98 1015.8
20260507045903 54 359 0.9 2.6 0.00 0.57 0.40 98 1015.8
20260507045804 54 3 0.9 2.6 0.00 0.57 0.40 98 1015.7
20260507045704 54 4 0.9 2.6 0.00 0.57 0.40 98 1015.8
20260507045603 54 5 0.9 2.6 0.00 0.57 0.40 98 1015.6
20260507045503 54 7 0.9 2.6 0.00 0.57 0.40 98 1015.7
20260507045404 54 8 0.9 2.6 0.00 0.57 0.40 98 1015.7
20260507045306 54 11 0.9 2.6 0.00 0.57 0.40 98 1015.8
20260507045203 54 9 0.9 2.6 0.00 0.58 0.40 98 1015.7
20260507045103 54 10 0.9 2.6 0.00 0.59 0.40 98 1015.6
20260507045005 54 9 0.9 2.6 0.00 0.59 0.40 98 1015.5
20260507044905 54 9 0.9 2.6 0.00 0.59 0.40 98 1015.6
20260507044804 54 9 0.9 2.6 0.00 0.59 0.40 98 1015.6
20260507044703 54 16 0.9 2.6 0.00 0.59 0.40 98 1015.5
20260507044603 54 17 0.9 2.6 0.00 0.59 0.40 98 1015.6
20260507044503 54 21 0.9 2.6 0.00 0.59 0.40 97 1015.6
20260507044403 54 22 0.9 2.6 0.00 0.59 0.40 97 1015.4
20260507044303 54 26 0.9 2.6 0.00 0.60 0.40 97 1015.4
20260507044205 54 29 0.9 2.6 0.00 0.60 0.40 97 1015.5
20260507044105 54 30 0.9 1.7 0.00 0.60 0.40 97 1015.5
20260507044024 54 31 0.9 1.7 0.00 0.60 0.40 97 1015.5
20260507043904 54 31 0.9 2.6 0.00 0.61 0.40 97 1015.5
20260507043803 54 31 0.9 2.6 0.00 0.61 0.40 97 1015.3
20260507043703 54 25 0.9 2.6 0.00 0.61 0.40 97 1015.3
20260507043624 54 24 0.9 2.6 0.00 0.61 0.40 97 1015.3
20260507043505 54 25 0.9 3.5 0.00 0.61 0.40 97 1015.4
20260507043403 54 24 0.9 3.5 0.00 0.61 0.40 97 1015.4
20260507043304 54 20 0.9 3.5 0.00 0.61 0.40 97 1015.3
20260507043203 54 16 0.9 3.5 0.00 0.61 0.40 97 1015.5
20260507043103 54 19 0.9 3.5 0.00 0.61 0.40 97 1015.6
20260507043004 54 18 0.9 3.5 0.00 0.62 0.40 97 1015.6
20260507042904 54 19 0.9 3.5 0.00 0.62 0.40 97 1015.7
20260507042804 54 23 0.9 3.5 0.00 0.62 0.40 97 1015.4
20260507042703 54 26 0.9 3.5 0.00 0.62 0.40 97 1015.7
20260507042605 54 29 0.9 3.5 0.00 0.62 0.40 97 1015.5
20260507042524 54 29 0.9 3.5 0.00 0.62 0.40 97 1015.5
20260507042403 54 25 0.9 2.6 0.00 0.62 0.40 97 1015.6
20260507042324 54 26 0.9 2.6 0.00 0.62 0.40 97 1015.6
20260507042203 54 27 0.9 2.6 0.00 0.62 0.40 97 1015.6
20260507042103 54 29 0.9 2.6 0.00 0.62 0.40 97 1015.6
20260507042004 54 30 0.9 2.6 0.00 0.62 0.40 97 1015.5
20260507041904 54 30 0.9 2.6 0.00 0.62 0.40 97 1015.5
20260507041804 54 28 0.9 2.6 0.00 0.62 0.40 97 1015.4
20260507041703 54 27 0.9 2.6 0.00 0.62 0.40 97 1015.3
20260507041603 54 26 0.9 2.6 0.00 0.62 0.40 97 1015.3
20260507041505 54 28 0.9 2.6 0.00 0.62 0.40 97 1015.4
20260507041405 54 31 0.9 2.6 0.00 0.62 0.40 97 1015.5
20260507041305 54 33 0.9 2.6 0.00 0.62 0.40 97 1015.5
20260507041203 54 34 0.9 2.6 0.00 0.62 0.40 97 1015.5
20260507041103 54 33 0.9 2.6 0.00 0.62 0.40 97 1015.5
20260507041004 54 34 0.9 2.6 0.00 0.62 0.40 97 1015.5
20260507040903 54 34 0.9 2.6 0.00 0.62 0.40 97 1015.3
20260507040803 54 35 0.9 2.6 0.00 0.62 0.40 97 1015.3
20260507040703 54 35 0.9 2.6 0.00 0.62 0.40 97 1015.3
20260507040603 54 34 0.9 2.6 0.00 0.62 0.40 97 1015.3
20260507040503 54 34 0.9 2.6 0.00 0.62 0.40 97 1015.5
20260507040404 54 34 0.9 2.6 0.00 0.62 0.40 97 1015.5
20260507040303 54 34 0.9 2.6 0.00 0.62 0.40 97 1015.3
20260507040203 54 37 0.9 2.6 0.00 0.62 0.40 97 1015.4
20260507040124 54 38 0.9 2.6 0.00 0.62 0.40 97 1015.4
20260507040003 54 34 0.9 2.6 0.00 0.62 0.40 97 1015.4
20260507035925 54 33 0.9 2.6 0.00 0.62 0.40 97 1015.4
20260507035804 54 30 0.9 2.6 0.00 0.62 0.40 97 1015.5
20260507035724 54 29 0.9 2.6 0.00 0.62 0.40 97 1015.5
20260507035603 54 27 0.9 2.6 0.00 0.62 0.40 97 1015.5
20260507035504 54 25 0.9 2.6 0.00 0.62 0.40 97 1015.3
20260507035404 54 26 0.9 2.6 0.00 0.62 0.40 97 1015.4
20260507035306 54 26 0.9 2.6 0.00 0.62 0.40 97 1015.5
20260507035205 54 24 0.9 2.6 0.00 0.62 0.40 97 1015.3
20260507035126 54 22 0.9 2.6 0.00 0.62 0.40 97 1015.3
20260507035027 54 23 0.9 2.6 0.00 0.62 0.40 97 1015.4
20260507034906 54 23 0.9 2.6 0.00 0.62 0.40 97 1015.5
20260507034805 54 25 0.9 2.6 0.00 0.62 0.40 97 1015.3
20260507034705 54 24 0.9 2.6 0.00 0.62 0.40 97 1015.4
20260507034605 54 26 0.9 2.6 0.00 0.62 0.40 97 1015.5
20260507034505 54 28 0.9 2.6 0.00 0.62 0.40 97 1015.5
20260507034405 54 28 0.9 2.6 0.00 0.62 0.40 97 1015.4
20260507034326 54 29 1.7 3.5 0.00 0.62 0.40 97 1015.4
20260507034205 54 28 0.9 3.5 0.00 0.62 0.40 97 1015.4
20260507034105 54 29 0.9 3.5 0.00 0.62 0.40 97 1015.5
20260507034005 54 29 0.9 3.5 0.00 0.62 0.40 97 1015.4
20260507033905 54 26 0.9 3.5 0.00 0.62 0.40 97 1015.5